IT9IJI-13 Weather Reports


Display with metric or nautical units.
time (UTC)temp
F
wind
direction
speed
MPH
gust
MPH
rain 1hr
in
rain 24hr
in
rain mn
in
humidity
%
barometer
mb
20260906052305 80 296 3.0 8.0 0.00 0.00 0.00 76 1019.3
20260906052203 80 294 3.0 8.0 0.00 0.00 0.00 76 1019.3
20260906052103 80 293 3.0 8.0 0.00 0.00 0.00 76 1019.2
20260906052003 80 293 3.0 11.0 0.00 0.00 0.00 76 1019.3
20260906051903 80 294 3.0 11.0 0.00 0.00 0.00 76 1019.3
20260906051803 80 294 3.0 11.0 0.00 0.00 0.00 76 1019.3
20260906051703 80 294 4.0 11.0 0.00 0.00 0.00 76 1019.2
20260906051603 80 293 3.0 11.0 0.00 0.00 0.00 76 1019.2
20260906051503 80 292 3.0 11.0 0.00 0.00 0.00 76 1019.2
20260906051403 80 291 4.0 11.0 0.00 0.00 0.00 76 1019.3
20260906051303 80 291 3.0 11.0 0.00 0.00 0.00 76 1019.2
20260906051203 80 292 3.0 11.0 0.00 0.00 0.00 76 1019.2
20260906051103 80 293 3.0 11.0 0.00 0.00 0.00 76 1019.2
20260906051003 80 292 3.0 6.0 0.00 0.00 0.00 76 1019.1
20260906050903 80 293 3.0 6.0 0.00 0.00 0.00 76 1019.3
20260906050803 80 292 2.0 6.0 0.00 0.00 0.00 76 1019.4
20260906050703 80 292 3.0 6.0 0.00 0.00 0.00 76 1019.4
20260906050603 80 293 3.0 7.0 0.00 0.00 0.00 76 1019.5
20260906050503 80 294 3.0 8.0 0.00 0.00 0.00 76 1019.3
20260906050403 80 296 3.0 8.0 0.00 0.00 0.00 76 1019.3
20260906050303 80 295 3.0 8.0 0.00 0.00 0.00 76 1019.3
20260906050203 80 296 3.0 8.0 0.00 0.00 0.00 76 1019.3
20260906050003 80 296 3.0 10.0 0.00 0.00 0.00 76 1019.2
20260906045903 80 296 3.0 10.0 0.00 0.00 0.00 76 1019.3
20260906045803 80 295 4.0 10.0 0.00 0.00 0.00 76 1019.3
20260906045703 80 295 4.0 10.0 0.00 0.00 0.00 76 1019.3
20260906045603 80 295 4.0 10.0 0.00 0.00 0.00 76 1019.3
20260906045503 80 294 3.0 10.0 0.00 0.00 0.00 76 1019.3
20260906045403 80 293 3.0 10.0 0.00 0.00 0.00 76 1019.3
20260906045305 80 295 3.0 10.0 0.00 0.00 0.00 76 1019.3
20260906045203 80 293 3.0 10.0 0.00 0.00 0.00 76 1019.3
20260906045103 80 293 3.0 10.0 0.00 0.00 0.00 76 1019.2
20260906045003 80 293 3.0 6.0 0.00 0.00 0.00 76 1019.3
20260906044903 80 293 3.0 6.0 0.00 0.00 0.00 76 1019.2
20260906044803 80 295 3.0 6.0 0.00 0.00 0.00 76 1019.1
20260906044703 80 297 3.0 7.0 0.00 0.00 0.00 76 1019.2
20260906044603 80 297 3.0 7.0 0.00 0.00 0.00 76 1019.2
20260906044503 80 296 3.0 7.0 0.00 0.00 0.00 76 1019.1
20260906044403 80 297 3.0 7.0 0.00 0.00 0.00 76 1019.1
20260906044303 80 296 3.0 7.0 0.00 0.00 0.00 76 1019.1
20260906044203 80 297 3.0 7.0 0.00 0.00 0.00 76 1019.2
20260906044103 80 297 3.0 7.0 0.00 0.00 0.00 76 1019.1
20260906044003 80 297 3.0 7.0 0.00 0.00 0.00 76 1019.1
20260906043903 80 297 3.0 7.0 0.00 0.00 0.00 76 1019.2
20260906043803 80 296 2.0 7.0 0.00 0.00 0.00 76 1019.1
20260906043703 80 296 3.0 6.0 0.00 0.00 0.00 76 1019.1
20260906043603 80 296 3.0 7.0 0.00 0.00 0.00 76 1019.2
20260906043503 80 298 2.0 7.0 0.00 0.00 0.00 76 1019.2
20260906043403 80 296 2.0 7.0 0.00 0.00 0.00 76 1019.1
20260906043303 80 296 2.0 7.0 0.00 0.00 0.00 76 1019.1
20260906043203 80 293 3.0 7.0 0.00 0.00 0.00 76 1019.2
20260906043104 80 293 2.0 7.0 0.00 0.00 0.00 76 1019.2
20260906043004 80 293 3.0 7.0 0.00 0.00 0.00 76 1019.0
20260906042904 80 293 3.0 7.0 0.00 0.00 0.00 76 1019.1
20260906042804 80 292 3.0 7.0 0.00 0.00 0.00 76 1019.1
20260906042704 80 292 3.0 7.0 0.00 0.00 0.00 76 1019.2
20260906042604 80 293 3.0 6.0 0.00 0.00 0.00 76 1019.1
20260906042504 80 292 3.0 6.0 0.00 0.00 0.00 76 1019.1
20260906042404 80 293 3.0 6.0 0.00 0.00 0.00 76 1019.1
20260906042306 80 293 3.0 6.0 0.00 0.00 0.00 76 1019.1
20260906042204 80 293 3.0 6.0 0.00 0.00 0.00 76 1019.0
20260906042104 80 294 3.0 6.0 0.00 0.00 0.00 76 1019.0
20260906042004 80 297 2.0 6.0 0.00 0.00 0.00 76 1019.2
20260906041904 80 298 2.0 6.0 0.00 0.00 0.00 76 1019.1
20260906041804 80 298 2.0 6.0 0.00 0.00 0.00 76 1019.1
20260906041704 80 298 2.0 6.0 0.00 0.00 0.00 76 1019.0
20260906041604 80 297 2.0 5.0 0.00 0.00 0.00 76 1019.1
20260906041504 80 297 2.0 5.0 0.00 0.00 0.00 76 1019.1
20260906041404 80 297 2.0 6.0 0.00 0.00 0.00 76 1019.1
20260906041304 80 297 2.0 6.0 0.00 0.00 0.00 76 1019.0
20260906041204 80 297 3.0 6.0 0.00 0.00 0.00 76 1019.0
20260906041104 80 296 3.0 7.0 0.00 0.00 0.00 76 1019.0
20260906041004 80 295 3.0 7.0 0.00 0.00 0.00 76 1019.0
20260906040904 80 297 4.0 7.0 0.00 0.00 0.00 76 1019.0
20260906040804 80 297 4.0 7.0 0.00 0.00 0.00 76 1019.0
20260906040705 80 295 4.0 7.0 0.00 0.00 0.00 76 1019.0
20260906040604 80 295 4.0 7.0 0.00 0.00 0.00 76 1019.0
20260906040504 80 296 4.0 7.0 0.00 0.00 0.00 76 1019.1
20260906040404 80 296 4.0 8.0 0.00 0.00 0.00 76 1019.0
20260906040304 80 296 4.0 8.0 0.00 0.00 0.00 76 1019.0
20260906040204 80 298 4.0 8.0 0.00 0.00 0.00 76 1019.0
20260906040104 80 299 4.0 8.0 0.00 0.00 0.00 76 1019.0
20260906040004 80 299 4.0 8.0 0.00 0.00 0.00 76 1019.0
20260906035904 80 297 3.0 8.0 0.00 0.00 0.00 76 1019.0
20260906035804 80 296 3.0 8.0 0.00 0.00 0.00 76 1019.0
20260906035704 80 297 3.0 8.0 0.00 0.00 0.00 76 1019.0
20260906035604 80 297 3.0 8.0 0.00 0.00 0.00 76 1019.0
20260906035504 80 298 3.0 8.0 0.00 0.00 0.00 76 1019.0
20260906035404 80 296 3.0 7.0 0.00 0.00 0.00 76 1018.9
20260906035306 80 296 3.0 7.0 0.00 0.00 0.00 76 1018.9
20260906035204 80 294 3.0 7.0 0.00 0.00 0.00 76 1018.9
20260906035104 80 294 3.0 7.0 0.00 0.00 0.00 76 1018.9
20260906035004 80 294 3.0 7.0 0.00 0.00 0.00 76 1018.9
20260906034903 80 296 3.0 7.0 0.00 0.00 0.00 76 1018.9
20260906034804 80 295 3.0 7.0 0.00 0.00 0.00 76 1018.9
20260906034704 80 296 3.0 7.0 0.00 0.00 0.00 76 1018.9
20260906034604 80 297 3.0 6.0 0.00 0.00 0.00 76 1018.9
20260906034503 80 297 3.0 8.0 0.00 0.00 0.00 76 1018.9
20260906034404 80 298 3.0 8.0 0.00 0.00 0.00 76 1018.9
20260906034304 80 298 3.0 8.0 0.00 0.00 0.00 76 1018.8
20260906034203 80 298 3.0 8.0 0.00 0.00 0.00 76 1018.8
20260906034104 80 298 3.0 8.0 0.00 0.00 0.00 76 1018.8
20260906034004 80 298 3.0 8.0 0.00 0.00 0.00 76 1018.9
20260906033903 80 296 3.0 8.0 0.00 0.00 0.00 76 1018.8
20260906033803 80 298 3.0 8.0 0.00 0.00 0.00 76 1018.8
20260906033703 80 297 3.0 8.0 0.00 0.00 0.00 76 1018.7
20260906033603 80 295 2.0 8.0 0.00 0.00 0.00 76 1018.7
20260906033503 80 294 2.0 7.0 0.00 0.00 0.00 76 1018.8
20260906033404 80 294 3.0 7.0 0.00 0.00 0.00 76 1018.8
20260906033303 80 295 2.0 7.0 0.00 0.00 0.00 76 1018.7
20260906033203 80 294 2.0 7.0 0.00 0.00 0.00 76 1018.8
20260906033103 80 293 2.0 7.0 0.00 0.00 0.00 76 1018.9
20260906033003 80 293 2.0 7.0 0.00 0.00 0.00 76 1018.8
20260906032903 80 293 2.0 7.0 0.00 0.00 0.00 76 1018.8
20260906032803 80 294 2.0 7.0 0.00 0.00 0.00 76 1018.8
20260906032703 80 293 3.0 7.0 0.00 0.00 0.00 76 1018.9
20260906032603 80 293 3.0 7.0 0.00 0.00 0.00 76 1018.8
20260906032503 80 293 3.0 7.0 0.00 0.00 0.00 76 1018.8
20260906032403 80 294 3.0 7.0 0.00 0.00 0.00 76 1018.8
20260906032306 80 293 3.0 7.0 0.00 0.00 0.00 75 1018.8
20260906032203 80 293 3.0 7.0 0.00 0.00 0.00 76 1018.7
20260906032103 80 294 3.0 7.0 0.00 0.00 0.00 76 1018.8
20260906032003 80 294 2.0 6.0 0.00 0.00 0.00 76 1018.9
20260906031903 80 295 2.0 6.0 0.00 0.00 0.00 75 1018.8
20260906031803 80 294 2.0 6.0 0.00 0.00 0.00 75 1018.9
20260906031704 80 295 2.0 6.0 0.00 0.00 0.00 75 1018.8
20260906031603 80 295 2.0 6.0 0.00 0.00 0.00 75 1018.9
20260906031503 80 296 2.0 6.0 0.00 0.00 0.00 75 1018.8
20260906031403 80 297 2.0 7.0 0.00 0.00 0.00 75 1018.9
20260906031303 80 298 2.0 7.0 0.00 0.00 0.00 75 1018.9
20260906031203 80 297 2.0 7.0 0.00 0.00 0.00 75 1018.8
20260906031103 80 297 2.0 7.0 0.00 0.00 0.00 75 1018.8
20260906031003 80 297 2.0 7.0 0.00 0.00 0.00 75 1018.7
20260906030903 80 295 1.0 7.0 0.00 0.00 0.00 75 1018.7
20260906030803 80 297 1.0 7.0 0.00 0.00 0.00 75 1018.7
20260906030703 80 300 1.0 7.0 0.00 0.00 0.00 75 1018.7
20260906030603 80 300 1.0 7.0 0.00 0.00 0.00 75 1018.7
20260906030503 80 298 1.0 7.0 0.00 0.00 0.00 75 1018.7
20260906030403 80 297 1.0 5.0 0.00 0.00 0.00 75 1018.7
20260906030303 80 299 1.0 5.0 0.00 0.00 0.00 75 1018.7
20260906030203 80 299 1.0 5.0 0.00 0.00 0.00 75 1018.8
20260906030003 80 298 2.0 5.0 0.00 0.00 0.00 75 1018.8
20260906025903 80 297 2.0 5.0 0.00 0.00 0.00 75 1018.8
20260906025803 80 298 2.0 5.0 0.00 0.00 0.00 75 1018.9
20260906025703 80 296 2.0 5.0 0.00 0.00 0.00 75 1018.9
20260906025603 80 296 2.0 5.0 0.00 0.00 0.00 75 1018.9
20260906025503 80 298 2.0 8.0 0.00 0.00 0.00 75 1018.9
20260906025403 80 296 3.0 8.0 0.00 0.00 0.00 75 1018.8
20260906025306 80 296 3.0 8.0 0.00 0.00 0.00 75 1018.8
20260906025203 80 296 3.0 8.0 0.00 0.00 0.00 75 1018.8
20260906025103 80 295 3.0 10.0 0.00 0.00 0.00 75 1018.8
20260906025003 80 295 3.0 10.0 0.00 0.00 0.00 75 1018.8
20260906024903 80 296 3.0 10.0 0.00 0.00 0.00 75 1018.8
20260906024803 80 297 3.0 10.0 0.00 0.00 0.00 75 1018.9
20260906024703 80 296 3.0 10.0 0.00 0.00 0.00 75 1018.9
20260906024603 80 296 3.0 10.0 0.00 0.00 0.00 75 1018.9
20260906024503 80 294 2.0 10.0 0.00 0.00 0.00 75 1018.8
20260906024403 80 295 2.0 10.0 0.00 0.00 0.00 75 1018.9
20260906024303 80 295 2.0 10.0 0.00 0.00 0.00 75 1018.9
20260906024203 80 295 2.0 10.0 0.00 0.00 0.00 75 1018.9
20260906024103 80 298 1.0 6.0 0.00 0.00 0.00 75 1018.8
20260906024003 80 298 1.0 6.0 0.00 0.00 0.00 75 1018.9
20260906023903 80 297 1.0 6.0 0.00 0.00 0.00 75 1018.9
20260906023803 80 296 2.0 8.0 0.00 0.00 0.00 75 1018.9
20260906023703 80 300 2.0 8.0 0.00 0.00 0.00 75 1018.9
20260906023603 80 300 2.0 8.0 0.00 0.00 0.00 75 1018.9
20260906023503 80 300 2.0 8.0 0.00 0.00 0.00 75 1018.9
20260906023403 80 299 2.0 8.0 0.00 0.00 0.00 75 1018.9
20260906023303 80 298 2.0 8.0 0.00 0.00 0.00 75 1018.9
20260906023203 80 298 2.0 8.0 0.00 0.00 0.00 75 1018.9
20260906023103 80 297 2.0 8.0 0.00 0.00 0.00 75 1018.9
20260906023003 80 297 2.0 8.0 0.00 0.00 0.00 75 1018.9
20260906022903 80 297 3.0 8.0 0.00 0.00 0.00 75 1018.9
20260906022803 80 295 2.0 8.0 0.00 0.00 0.00 75 1018.9
20260906022703 80 293 2.0 8.0 0.00 0.00 0.00 75 1018.9
20260906022603 81 294 2.0 8.0 0.00 0.00 0.00 75 1018.9
20260906022504 81 293 2.0 6.0 0.00 0.00 0.00 75 1018.8
20260906022404 80 293 2.0 6.0 0.00 0.00 0.00 75 1018.9
20260906022306 80 294 2.0 6.0 0.00 0.00 0.00 75 1018.9
20260906022204 80 294 3.0 6.0 0.00 0.00 0.00 75 1018.9
20260906022104 80 294 2.0 6.0 0.00 0.00 0.00 75 1018.9
20260906022004 80 294 2.0 6.0 0.00 0.00 0.00 75 1018.9
20260906021904 81 294 2.0 6.0 0.00 0.00 0.00 75 1018.9
20260906021804 80 294 2.0 6.0 0.00 0.00 0.00 75 1018.9
20260906021704 81 294 2.0 6.0 0.00 0.00 0.00 75 1018.9
20260906021604 81 293 2.0 7.0 0.00 0.00 0.00 75 1018.9
20260906021504 81 292 2.0 7.0 0.00 0.00 0.00 75 1018.9
20260906021404 81 293 2.0 7.0 0.00 0.00 0.00 75 1018.9
20260906021304 81 292 2.0 7.0 0.00 0.00 0.00 75 1018.8
20260906021204 81 293 2.0 7.0 0.00 0.00 0.00 75 1018.9
20260906021104 81 293 2.0 7.0 0.00 0.00 0.00 75 1018.9
20260906021004 81 292 2.0 7.0 0.00 0.00 0.00 75 1018.8
20260906020904 81 292 2.0 7.0 0.00 0.00 0.00 75 1018.9
20260906020804 81 290 1.0 7.0 0.00 0.00 0.00 75 1018.9
20260906020704 81 290 1.0 7.0 0.00 0.00 0.00 75 1018.8
20260906020604 81 287 1.0 6.0 0.00 0.00 0.00 75 1018.8
20260906020504 81 290 1.0 6.0 0.00 0.00 0.00 75 1018.9
20260906020404 81 290 1.0 6.0 0.00 0.00 0.00 75 1018.9
20260906020304 81 289 1.0 6.0 0.00 0.00 0.00 75 1018.9
20260906020204 81 285 1.0 4.0 0.00 0.00 0.00 75 1018.9
20260906020104 81 292 1.0 5.0 0.00 0.00 0.00 75 1018.9
20260906020004 81 292 1.0 5.0 0.00 0.00 0.00 75 1018.9
20260906015904 81 296 1.0 5.0 0.00 0.00 0.00 75 1018.8
20260906015804 81 300 1.0 5.0 0.00 0.00 0.00 75 1018.9
20260906015704 80 300 1.0 5.0 0.00 0.00 0.00 75 1018.8
20260906015604 81 299 1.0 5.0 0.00 0.00 0.00 75 1018.9
20260906015504 81 301 2.0 5.0 0.00 0.00 0.00 75 1018.9
20260906015404 81 302 2.0 5.0 0.00 0.00 0.00 75 1018.7
20260906015306 81 304 1.0 5.0 0.00 0.00 0.00 75 1018.8
20260906015204 81 306 1.0 5.0 0.00 0.00 0.00 75 1018.9
20260906015104 81 309 1.0 5.0 0.00 0.00 0.00 75 1018.8
20260906015004 81 305 1.0 6.0 0.00 0.00 0.00 75 1018.8
20260906014904 81 303 1.0 6.0 0.00 0.00 0.00 75 1018.9
20260906014804 81 301 1.0 6.0 0.00 0.00 0.00 75 1018.8
20260906014704 81 304 1.0 6.0 0.00 0.00 0.00 75 1018.9
20260906014604 81 303 1.0 6.0 0.00 0.00 0.00 75 1018.9
20260906014504 81 298 1.0 6.0 0.00 0.00 0.00 75 1018.9
20260906014404 81 297 1.0 6.0 0.00 0.00 0.00 75 1018.9
20260906014304 81 298 2.0 7.0 0.00 0.00 0.00 75 1018.9
20260906014204 81 298 2.0 7.0 0.00 0.00 0.00 75 1018.8
20260906014104 81 297 2.0 7.0 0.00 0.00 0.00 75 1018.8
20260906014003 81 296 2.0 7.0 0.00 0.00 0.00 75 1018.8
20260906013903 81 296 2.0 7.0 0.00 0.00 0.00 75 1018.8
20260906013804 81 297 2.0 7.0 0.00 0.00 0.00 75 1018.8
20260906013703 81 296 3.0 8.0 0.00 0.00 0.00 75 1018.8
20260906013603 81 296 3.0 8.0 0.00 0.00 0.00 75 1018.8
20260906013503 81 297 3.0 8.0 0.00 0.00 0.00 75 1018.9
20260906013403 81 298 3.0 8.0 0.00 0.00 0.00 75 1018.9
20260906013303 81 298 3.0 9.0 0.00 0.00 0.00 75 1018.9
20260906013203 81 299 3.0 9.0 0.00 0.00 0.00 75 1019.0
20260906013104 81 298 3.0 9.0 0.00 0.00 0.00 75 1018.9
20260906013003 81 299 2.0 9.0 0.00 0.00 0.00 75 1018.9
20260906012903 81 299 2.0 9.0 0.00 0.00 0.00 75 1018.8
20260906012803 81 299 2.0 9.0 0.00 0.00 0.00 75 1018.9
20260906012703 81 304 2.0 9.0 0.00 0.00 0.00 75 1018.9
20260906012603 81 306 2.0 9.0 0.00 0.00 0.00 75 1018.9
20260906012503 81 305 2.0 9.0 0.00 0.00 0.00 75 1018.9
20260906012403 81 300 2.0 9.0 0.00 0.00 0.00 75 1018.9
20260906012306 81 297 3.0 6.0 0.00 0.00 0.00 75 1019.0
20260906012203 81 295 3.0 6.0 0.00 0.00 0.00 75 1019.0
20260906012103 81 294 3.0 6.0 0.00 0.00 0.00 75 1018.9
20260906012003 81 295 3.0 6.0 0.00 0.00 0.00 75 1018.9
20260906011903 81 295 3.0 6.0 0.00 0.00 0.00 75 1018.9
20260906011803 81 295 3.0 6.0 0.00 0.00 0.00 75 1019.0
20260906011703 81 292 3.0 6.0 0.00 0.00 0.00 75 1019.0
20260906011603 81 291 3.0 7.0 0.00 0.00 0.00 75 1018.9
20260906011503 81 292 3.0 7.0 0.00 0.00 0.00 75 1018.9
20260906011403 81 293 3.0 8.0 0.00 0.00 0.00 75 1018.9
20260906011303 81 292 3.0 9.0 0.00 0.00 0.00 75 1018.8
20260906011203 81 293 3.0 9.0 0.00 0.00 0.00 75 1018.9
20260906011103 81 294 3.0 9.0 0.00 0.00 0.00 75 1018.9
20260906011003 81 293 4.0 9.0 0.00 0.00 0.00 75 1018.9
20260906010903 81 293 3.0 9.0 0.00 0.00 0.00 75 1018.8
20260906010803 81 292 4.0 9.0 0.00 0.00 0.00 75 1018.8
20260906010703 81 292 4.0 9.0 0.00 0.00 0.00 75 1018.8
20260906010603 81 294 4.0 9.0 0.00 0.00 0.00 75 1018.8
20260906010503 81 294 4.0 9.0 0.00 0.00 0.00 75 1018.9
20260906010403 81 293 4.0 9.0 0.00 0.00 0.00 75 1018.8
20260906010303 81 294 4.0 8.0 0.00 0.00 0.00 75 1018.8
20260906010203 81 294 4.0 8.0 0.00 0.00 0.00 75 1018.8
20260906010103 81 292 4.0 8.0 0.00 0.00 0.00 75 1018.8
20260906010003 81 292 4.0 8.0 0.00 0.00 0.00 75 1018.8
20260906005903 81 292 4.0 8.0 0.00 0.00 0.00 75 1018.9
20260906005803 81 292 4.0 8.0 0.00 0.00 0.00 75 1018.9
20260906005703 81 293 4.0 8.0 0.00 0.00 0.00 75 1018.9
20260906005603 81 291 3.0 7.0 0.00 0.00 0.00 75 1018.9
20260906005503 81 295 3.0 7.0 0.00 0.00 0.00 75 1018.8
20260906005403 81 294 3.0 7.0 0.00 0.00 0.00 75 1018.8
20260906005306 81 295 3.0 8.0 0.00 0.00 0.00 75 1018.8
20260906005203 81 294 2.0 8.0 0.00 0.00 0.00 75 1018.9
20260906005103 81 296 2.0 8.0 0.00 0.00 0.00 75 1018.7
20260906005003 81 299 2.0 8.0 0.00 0.00 0.00 75 1018.8
20260906004903 81 301 2.0 8.0 0.00 0.00 0.00 75 1018.7
20260906004803 81 300 2.0 8.0 0.00 0.00 0.00 75 1018.8
20260906004703 81 299 2.0 8.0 0.00 0.00 0.00 75 1018.8
20260906004603 81 299 2.0 8.0 0.00 0.00 0.00 75 1018.8
20260906004503 81 297 2.0 8.0 0.00 0.00 0.00 75 1018.8
20260906004403 81 297 3.0 8.0 0.00 0.00 0.00 75 1018.8
20260906004303 81 297 2.0 7.0 0.00 0.00 0.00 75 1018.9
20260906004203 81 297 2.0 7.0 0.00 0.00 0.00 75 1018.8
20260906004103 81 298 2.0 7.0 0.00 0.00 0.00 75 1018.8
20260906004003 81 297 2.0 7.0 0.00 0.00 0.00 75 1018.8
20260906003903 81 299 3.0 7.0 0.00 0.00 0.00 75 1018.8
20260906003803 81 299 2.0 7.0 0.00 0.00 0.00 75 1018.7
20260906003703 81 298 3.0 7.0 0.00 0.00 0.00 75 1018.8
20260906003603 81 298 3.0 7.0 0.00 0.00 0.00 75 1018.9
20260906003503 81 297 3.0 7.0 0.00 0.00 0.00 75 1018.9
20260906003403 81 296 3.0 7.0 0.00 0.00 0.00 75 1018.8
20260906003303 81 298 3.0 7.0 0.00 0.00 0.00 75 1018.9
20260906003203 81 299 3.0 7.0 0.00 0.00 0.00 75 1018.8
20260906003103 81 299 3.0 7.0 0.00 0.00 0.00 75 1018.9
20260906003003 81 299 3.0 7.0 0.00 0.00 0.00 75 1018.9
20260906002903 81 298 2.0 7.0 0.00 0.00 0.00 75 1018.7
20260906002803 81 299 2.0 7.0 0.00 0.00 0.00 76 1018.9
20260906002703 81 299 2.0 7.0 0.00 0.00 0.00 75 1018.9
20260906002603 81 299 2.0 7.0 0.00 0.00 0.00 76 1018.9
20260906002503 81 300 2.0 7.0 0.00 0.00 0.00 75 1018.8
20260906002403 81 302 2.0 7.0 0.00 0.00 0.00 75 1018.8
20260906002305 81 300 2.0 7.0 0.00 0.00 0.00 76 1018.8
20260906002203 81 299 2.0 6.0 0.00 0.00 0.00 75 1018.8
20260906002103 81 299 2.0 6.0 0.00 0.00 0.00 75 1018.9
20260906002003 81 300 2.0 6.0 0.00 0.00 0.00 76 1018.7
20260906001904 81 304 2.0 6.0 0.00 0.00 0.00 76 1018.8
20260906001804 81 301 2.0 7.0 0.00 0.00 0.00 76 1018.8
20260906001704 81 302 2.0 7.0 0.00 0.00 0.00 76 1018.9
20260906001604 81 302 2.0 7.0 0.00 0.00 0.00 76 1018.9
20260906001504 81 302 2.0 7.0 0.00 0.00 0.00 76 1018.9
20260906001404 81 300 2.0 7.0 0.00 0.00 0.00 76 1018.9
20260906001304 81 300 2.0 7.0 0.00 0.00 0.00 76 1018.9
20260906001204 81 300 3.0 9.0 0.00 0.00 0.00 76 1018.9
20260906001104 81 300 3.0 9.0 0.00 0.00 0.00 76 1019.0
20260906001004 81 300 3.0 9.0 0.00 0.00 0.00 76 1019.1
20260906000904 81 296 3.0 9.0 0.00 0.00 0.00 76 1019.1
20260906000804 81 298 3.0 9.0 0.00 0.00 0.00 76 1019.1
20260906000704 81 298 4.0 9.0 0.00 0.00 0.00 76 1019.0
20260906000604 81 298 4.0 9.0 0.00 0.00 0.00 76 1019.1
20260906000504 81 298 4.0 9.0 0.00 0.00 0.00 76 1019.1
20260906000404 81 299 4.0 9.0 0.00 0.00 0.00 76 1019.2
20260906000304 81 298 4.0 9.0 0.00 0.00 0.00 76 1019.1
20260906000204 81 298 4.0 8.0 0.00 0.00 0.00 76 1019.1
20260906000104 81 298 3.0 7.0 0.00 0.00 0.00 76 1019.1
20260906000004 81 298 3.0 7.0 0.00 0.00 0.00 76 1019.1
20260905235904 81 298 3.0 7.0 0.00 0.00 0.00 76 1019.1
20260905235804 81 298 3.0 7.0 0.00 0.00 0.00 76 1019.2
20260905235704 81 298 2.0 6.0 0.00 0.00 0.00 75 1019.2
20260905235604 81 298 2.0 6.0 0.00 0.00 0.00 76 1019.3
20260905235504 81 297 2.0 6.0 0.00 0.00 0.00 75 1019.2
20260905235404 81 298 2.0 6.0 0.00 0.00 0.00 76 1019.3
20260905235306 81 299 1.0 6.0 0.00 0.00 0.00 75 1019.3
20260905235204 81 298 1.0 5.0 0.00 0.00 0.00 76 1019.2
20260905235104 81 297 1.0 5.0 0.00 0.00 0.00 76 1019.3
20260905235004 81 298 1.0 5.0 0.00 0.00 0.00 76 1019.3
20260905234904 81 304 1.0 3.0 0.00 0.00 0.00 76 1019.2
20260905234804 81 305 1.0 5.0 0.00 0.00 0.00 76 1019.2
20260905234704 81 304 1.0 5.0 0.00 0.00 0.00 76 1019.3
20260905234604 81 303 1.0 5.0 0.00 0.00 0.00 76 1019.3
20260905234504 81 302 1.0 5.0 0.00 0.00 0.00 76 1019.3
20260905234404 81 301 1.0 5.0 0.00 0.00 0.00 76 1019.2
20260905234304 81 302 1.0 5.0 0.00 0.00 0.00 76 1019.3
20260905234204 81 300 2.0 5.0 0.00 0.00 0.00 76 1019.3
20260905234104 81 300 2.0 6.0 0.00 0.00 0.00 76 1019.3
20260905234004 81 298 2.0 6.0 0.00 0.00 0.00 76 1019.3
20260905233904 81 297 2.0 6.0 0.00 0.00 0.00 76 1019.3
20260905233804 81 297 2.0 6.0 0.00 0.00 0.00 76 1019.4
20260905233704 81 297 2.0 6.0 0.00 0.00 0.00 76 1019.3
20260905233603 81 297 2.0 6.0 0.00 0.00 0.00 76 1019.4
20260905233503 81 296 2.0 6.0 0.00 0.00 0.00 76 1019.4
20260905233404 81 296 2.0 6.0 0.00 0.00 0.00 76 1019.4
20260905233303 81 297 2.0 6.0 0.00 0.00 0.00 76 1019.4
20260905233203 81 295 2.0 6.0 0.00 0.00 0.00 76 1019.4
20260905233103 81 293 1.0 6.0 0.00 0.00 0.00 76 1019.4
20260905233004 81 295 1.0 6.0 0.00 0.00 0.00 76 1019.4
20260905232903 81 295 1.0 6.0 0.00 0.00 0.00 76 1019.4
20260905232804 81 295 1.0 6.0 0.00 0.00 0.00 76 1019.4
20260905232703 81 294 2.0 6.0 0.00 0.00 0.00 76 1019.4
20260905232604 81 294 2.0 6.0 0.00 0.00 0.00 76 1019.3
20260905232504 81 295 2.0 6.0 0.00 0.00 0.00 76 1019.5
20260905232403 81 295 2.0 6.0 0.00 0.00 0.00 76 1019.4
20260905232306 81 293 2.0 5.0 0.00 0.00 0.00 76 1019.4
20260905232203 81 293 2.0 5.0 0.00 0.00 0.00 76 1019.5
20260905232104 81 293 1.0 4.0 0.00 0.00 0.00 76 1019.5
20260905232004 81 292 1.0 4.0 0.00 0.00 0.00 76 1019.4
20260905231903 81 292 2.0 4.0 0.00 0.00 0.00 76 1019.4
20260905231803 81 292 1.0 4.0 0.00 0.00 0.00 76 1019.5
20260905231703 81 292 1.0 4.0 0.00 0.00 0.00 76 1019.5
20260905231603 81 292 2.0 4.0 0.00 0.00 0.00 76 1019.4
20260905231503 81 292 2.0 4.0 0.00 0.00 0.00 76 1019.4
20260905231403 81 292 1.0 3.0 0.00 0.00 0.00 76 1019.5
20260905231303 81 292 1.0 3.0 0.00 0.00 0.00 75 1019.4
20260905231204 81 292 1.0 3.0 0.00 0.00 0.00 76 1019.4
20260905231003 81 293 1.0 6.0 0.00 0.00 0.00 75 1019.4
20260905230903 81 293 1.0 6.0 0.00 0.00 0.00 75 1019.4
20260905230803 81 293 1.0 6.0 0.00 0.00 0.00 75 1019.4
20260905230703 81 292 1.0 3.0 0.00 0.00 0.00 75 1019.5
20260905230603 81 291 1.0 4.0 0.00 0.00 0.00 75 1019.5
20260905230504 81 291 1.0 4.0 0.00 0.00 0.00 75 1019.4
20260905230404 81 293 1.0 4.0 0.00 0.00 0.00 76 1019.4
20260905230304 81 293 1.0 6.0 0.00 0.00 0.00 75 1019.5
20260905230204 81 292 1.0 6.0 0.00 0.00 0.00 76 1019.5
20260905230104 81 290 1.0 6.0 0.00 0.00 0.00 75 1019.5
20260905230004 81 290 1.0 6.0 0.00 0.00 0.00 75 1019.6
20260905225904 81 291 1.0 6.0 0.00 0.00 0.00 75 1019.5
20260905225804 81 293 1.0 6.0 0.00 0.00 0.00 75 1019.5
20260905225704 81 293 1.0 6.0 0.00 0.00 0.00 75 1019.5
20260905225604 81 294 2.0 6.0 0.00 0.00 0.00 75 1019.6
20260905225504 81 293 2.0 6.0 0.00 0.00 0.00 75 1019.5
20260905225404 81 294 2.0 6.0 0.00 0.00 0.00 75 1019.6
20260905225305 82 295 2.0 5.0 0.00 0.00 0.00 75 1019.5
20260905225204 81 297 2.0 5.0 0.00 0.00 0.00 75 1019.6
20260905225104 81 300 2.0 5.0 0.00 0.00 0.00 75 1019.5
20260905225004 82 300 2.0 5.0 0.00 0.00 0.00 75 1019.6
20260905224904 82 300 2.0 7.0 0.00 0.00 0.00 75 1019.5
20260905224804 82 299 2.0 7.0 0.00 0.00 0.00 75 1019.6
20260905224704 82 298 3.0 7.0 0.00 0.00 0.00 75 1019.5
20260905224604 82 298 3.0 7.0 0.00 0.00 0.00 75 1019.5
20260905224504 82 299 3.0 7.0 0.00 0.00 0.00 75 1019.5
20260905224404 82 298 3.0 7.0 0.00 0.00 0.00 75 1019.6
20260905224306 82 299 2.0 7.0 0.00 0.00 0.00 74 1019.6
20260905224204 82 300 2.0 7.0 0.00 0.00 0.00 75 1019.6
20260905224104 82 300 3.0 7.0 0.00 0.00 0.00 75 1019.6
20260905224004 82 299 3.0 7.0 0.00 0.00 0.00 75 1019.5
20260905223904 82 299 3.0 7.0 0.00 0.00 0.00 74 1019.5
20260905223804 82 298 3.0 7.0 0.00 0.00 0.00 74 1019.6
20260905223704 82 298 3.0 7.0 0.00 0.00 0.00 74 1019.6
20260905223604 82 298 3.0 7.0 0.00 0.00 0.00 74 1019.6
20260905223504 82 298 3.0 7.0 0.00 0.00 0.00 74 1019.5
20260905223404 82 298 3.0 7.0 0.00 0.00 0.00 74 1019.6
20260905223304 82 297 2.0 7.0 0.00 0.00 0.00 74 1019.6
20260905223204 82 296 2.0 6.0 0.00 0.00 0.00 74 1019.5
20260905223104 82 296 3.0 6.0 0.00 0.00 0.00 74 1019.6
20260905223004 82 295 3.0 6.0 0.00 0.00 0.00 74 1019.7
20260905222904 82 297 3.0 6.0 0.00 0.00 0.00 74 1019.6
20260905222804 82 298 3.0 6.0 0.00 0.00 0.00 74 1019.6
20260905222704 82 299 3.0 6.0 0.00 0.00 0.00 74 1019.5
20260905222604 82 299 3.0 6.0 0.00 0.00 0.00 74 1019.6
20260905222504 82 299 3.0 6.0 0.00 0.00 0.00 74 1019.6
20260905222404 82 298 3.0 6.0 0.00 0.00 0.00 74 1019.6
20260905222306 82 298 3.0 6.0 0.00 0.00 0.00 74 1019.6
20260905222204 82 298 3.0 6.0 0.00 0.00 0.00 74 1019.6
20260905222104 82 298 3.0 6.0 0.00 0.00 0.00 74 1019.6
20260905222004 82 299 3.0 6.0 0.00 0.00 0.00 74 1019.5
20260905221904 82 298 3.0 6.0 0.00 0.00 0.00 73 1019.6
20260905221804 82 298 3.0 6.0 0.00 0.00 0.00 73 1019.6
20260905221703 82 299 3.0 6.0 0.00 0.00 0.00 73 1019.6
20260905221604 82 301 3.0 6.0 0.00 0.00 0.00 73 1019.5
20260905221503 82 301 3.0 6.0 0.00 0.00 0.00 73 1019.6
20260905221404 82 301 3.0 6.0 0.00 0.00 0.00 73 1019.6
20260905221303 82 301 3.0 6.0 0.00 0.00 0.00 73 1019.5
20260905221204 82 301 2.0 6.0 0.00 0.00 0.00 73 1019.6
20260905221104 82 301 2.0 6.0 0.00 0.00 0.00 73 1019.6
20260905221003 82 302 2.0 6.0 0.00 0.00 0.00 73 1019.6
20260905220904 82 301 2.0 6.0 0.00 0.00 0.00 73 1019.6
20260905220803 82 300 2.0 5.0 0.00 0.00 0.00 73 1019.6
20260905220703 82 298 2.0 5.0 0.00 0.00 0.00 72 1019.6
20260905220603 82 295 1.0 5.0 0.00 0.00 0.00 72 1019.5
20260905220503 82 292 1.0 5.0 0.00 0.00 0.00 72 1019.5
20260905220403 82 291 1.0 4.0 0.00 0.00 0.00 72 1019.5
20260905220303 82 291 0.0 4.0 0.00 0.00 0.00 72 1019.6
20260905220204 82 291 0.0 4.0 0.00 0.00 0.00 72 1019.5
20260905220104 82 292 0.0 4.0 0.00 0.00 0.00 72 1019.5
20260905215903 82 292 1.0 4.0 0.00 0.00 0.00 72 1019.4
20260905215803 82 292 1.0 5.0 0.00 0.00 0.00 72 1019.5
20260905215703 82 292 1.0 5.0 0.00 0.00 0.00 72 1019.5
20260905215603 82 294 1.0 5.0 0.00 0.00 0.00 72 1019.5
20260905215503 82 293 1.0 5.0 0.00 0.00 0.00 72 1019.5
20260905215403 82 293 1.0 5.0 0.00 0.00 0.00 72 1019.5
20260905215306 82 293 1.0 5.0 0.00 0.00 0.00 72 1019.5
20260905215203 82 293 1.0 5.0 0.00 0.00 0.00 72 1019.5
20260905215103 82 293 1.0 5.0 0.00 0.00 0.00 72 1019.5
20260905215003 82 293 1.0 5.0 0.00 0.00 0.00 72 1019.5
20260905214903 82 293 2.0 5.0 0.00 0.00 0.00 72 1019.5
20260905214803 82 293 1.0 5.0 0.00 0.00 0.00 72 1019.5
20260905214703 82 293 1.0 4.0 0.00 0.00 0.00 72 1019.5
20260905214603 82 291 1.0 4.0 0.00 0.00 0.00 72 1019.5
20260905214503 82 293 1.0 5.0 0.00 0.00 0.00 72 1019.6
20260905214403 82 293 1.0 5.0 0.00 0.00 0.00 72 1019.5
20260905214303 82 294 1.0 5.0 0.00 0.00 0.00 72 1019.7
20260905214203 82 295 1.0 5.0 0.00 0.00 0.00 72 1019.6
20260905214103 82 296 1.0 5.0 0.00 0.00 0.00 72 1019.6
20260905214003 82 297 1.0 5.0 0.00 0.00 0.00 71 1019.6
20260905213903 82 298 1.0 5.0 0.00 0.00 0.00 71 1019.6
20260905213803 82 297 1.0 5.0 0.00 0.00 0.00 71 1019.6
20260905213703 82 298 1.0 5.0 0.00 0.00 0.00 71 1019.7
20260905213603 82 298 2.0 5.0 0.00 0.00 0.00 71 1019.7
20260905213503 82 297 1.0 5.0 0.00 0.00 0.00 71 1019.8
20260905213403 82 296 2.0 5.0 0.00 0.00 0.00 71 1019.7
20260905213303 82 297 2.0 6.0 0.00 0.00 0.00 71 1019.7
20260905213203 82 299 2.0 6.0 0.00 0.00 0.00 71 1019.7
20260905213103 82 297 2.0 6.0 0.00 0.00 0.00 71 1019.7
20260905213005 82 297 2.0 6.0 0.00 0.00 0.00 71 1019.7
20260905212903 82 298 3.0 6.0 0.00 0.00 0.00 71 1019.6
20260905212803 82 298 3.0 6.0 0.00 0.00 0.00 71 1019.7
20260905212703 82 297 3.0 6.0 0.00 0.00 0.00 71 1019.6
20260905212603 82 296 3.0 6.0 0.00 0.00 0.00 71 1019.7
20260905212503 82 296 3.0 6.0 0.00 0.00 0.00 71 1019.7
20260905212403 82 298 3.0 6.0 0.00 0.00 0.00 71 1019.7
20260905212306 82 297 3.0 6.0 0.00 0.00 0.00 71 1019.7
20260905212203 82 296 3.0 6.0 0.00 0.00 0.00 70 1019.7
20260905212103 82 296 3.0 6.0 0.00 0.00 0.00 70 1019.6
20260905212003 82 296 3.0 6.0 0.00 0.00 0.00 71 1019.6
20260905211903 82 296 3.0 6.0 0.00 0.00 0.00 70 1019.7
20260905211803 82 295 3.0 6.0 0.00 0.00 0.00 70 1019.6
20260905211705 82 296 3.0 6.0 0.00 0.00 0.00 70 1019.6
20260905211603 82 297 3.0 6.0 0.00 0.00 0.00 70 1019.6
20260905211503 82 297 3.0 6.0 0.00 0.00 0.00 70 1019.7
20260905211403 82 296 3.0 6.0 0.00 0.00 0.00 70 1019.7
20260905211304 82 296 3.0 6.0 0.00 0.00 0.00 70 1019.6
20260905211203 82 296 3.0 6.0 0.00 0.00 0.00 70 1019.7
20260905211103 82 296 3.0 6.0 0.00 0.00 0.00 70 1019.7
20260905211003 82 296 3.0 6.0 0.00 0.00 0.00 70 1019.6
20260905210903 82 297 3.0 5.0 0.00 0.00 0.00 70 1019.7
20260905210803 82 297 3.0 5.0 0.00 0.00 0.00 70 1019.6
20260905210703 82 298 2.0 5.0 0.00 0.00 0.00 70 1019.6
20260905210603 82 298 3.0 7.0 0.00 0.00 0.00 70 1019.6
20260905210503 82 297 3.0 7.0 0.00 0.00 0.00 70 1019.6
20260905210403 82 298 3.0 7.0 0.00 0.00 0.00 70 1019.6
20260905210303 82 298 3.0 7.0 0.00 0.00 0.00 70 1019.6
20260905210203 82 297 3.0 7.0 0.00 0.00 0.00 70 1019.6
20260905210103 82 297 3.0 7.0 0.00 0.00 0.00 70 1019.6
20260905210003 82 296 3.0 7.0 0.00 0.00 0.00 70 1019.6
20260905205903 82 295 3.0 7.0 0.00 0.00 0.00 70 1019.6
20260905205803 82 295 3.0 7.0 0.00 0.00 0.00 70 1019.5
20260905205704 82 294 3.0 7.0 0.00 0.00 0.00 70 1019.6
20260905205603 82 293 3.0 7.0 0.00 0.00 0.00 70 1019.5
20260905205503 82 295 3.0 7.0 0.00 0.00 0.00 70 1019.6
20260905205403 82 295 3.0 7.0 0.00 0.00 0.00 70 1019.6
20260905205306 82 296 3.0 6.0 0.00 0.00 0.00 70 1019.7
20260905205203 82 298 3.0 6.0 0.00 0.00 0.00 70 1019.7
20260905205103 82 298 3.0 7.0 0.00 0.00 0.00 70 1019.7
20260905205003 83 299 3.0 7.0 0.00 0.00 0.00 70 1019.7
20260905204903 82 301 3.0 7.0 0.00 0.00 0.00 70 1019.6
20260905204803 83 302 3.0 7.0 0.00 0.00 0.00 70 1019.8
20260905204703 83 301 3.0 7.0 0.00 0.00 0.00 70 1019.7
20260905204603 83 301 3.0 7.0 0.00 0.00 0.00 70 1019.8
20260905204503 83 301 3.0 7.0 0.00 0.00 0.00 70 1019.8
20260905204403 83 300 3.0 7.0 0.00 0.00 0.00 71 1019.8
20260905204303 83 298 3.0 7.0 0.00 0.00 0.00 71 1019.7
20260905204203 83 297 3.0 7.0 0.00 0.00 0.00 71 1019.7
20260905204103 83 297 3.0 7.0 0.00 0.00 0.00 70 1019.7
20260905204003 83 296 3.0 7.0 0.00 0.00 0.00 71 1019.8
20260905203903 83 294 3.0 6.0 0.00 0.00 0.00 70 1019.7
20260905203803 83 295 3.0 6.0 0.00 0.00 0.00 70 1019.7
20260905203703 83 296 3.0 8.0 0.00 0.00 0.00 70 1019.8
20260905203603 83 296 3.0 8.0 0.00 0.00 0.00 70 1019.7
20260905203503 83 295 4.0 8.0 0.00 0.00 0.00 70 1019.7
20260905203403 83 295 4.0 8.0 0.00 0.00 0.00 70 1019.7
20260905203303 83 296 4.0 8.0 0.00 0.00 0.00 70 1019.7
20260905203203 83 296 3.0 8.0 0.00 0.00 0.00 70 1019.7
20260905203103 83 295 3.0 8.0 0.00 0.00 0.00 70 1019.7
20260905203003 83 295 3.0 8.0 0.00 0.00 0.00 70 1019.7
20260905202904 83 295 3.0 8.0 0.00 0.00 0.00 70 1019.8
20260905202804 83 295 3.0 8.0 0.00 0.00 0.00 70 1019.7
20260905202704 83 294 3.0 7.0 0.00 0.00 0.00 71 1019.7
20260905202604 83 294 4.0 7.0 0.00 0.00 0.00 71 1019.7
20260905202504 83 295 3.0 7.0 0.00 0.00 0.00 71 1019.8
20260905202404 83 295 3.0 7.0 0.00 0.00 0.00 71 1019.7
20260905202306 83 297 3.0 7.0 0.00 0.00 0.00 71 1019.7
20260905202204 83 296 3.0 7.0 0.00 0.00 0.00 71 1019.8
20260905202104 83 296 4.0 7.0 0.00 0.00 0.00 71 1019.8
20260905202004 83 297 4.0 7.0 0.00 0.00 0.00 71 1019.8
20260905201904 83 296 4.0 7.0 0.00 0.00 0.00 71 1019.9
20260905201804 83 296 4.0 7.0 0.00 0.00 0.00 71 1019.8
20260905201704 83 296 3.0 7.0 0.00 0.00 0.00 71 1019.9
20260905201604 83 297 3.0 7.0 0.00 0.00 0.00 71 1019.8
20260905201504 83 296 3.0 7.0 0.00 0.00 0.00 71 1019.8
20260905201404 83 297 3.0 7.0 0.00 0.00 0.00 71 1019.9
20260905201304 83 294 3.0 7.0 0.00 0.00 0.00 71 1019.8
20260905201204 83 295 3.0 7.0 0.00 0.00 0.00 71 1019.8
20260905201104 83 297 2.0 7.0 0.00 0.00 0.00 71 1019.9
20260905201004 83 297 2.0 7.0 0.00 0.00 0.00 71 1019.8
20260905200904 83 299 2.0 5.0 0.00 0.00 0.00 71 1019.9
20260905200804 83 299 2.0 5.0 0.00 0.00 0.00 71 1019.7
20260905200704 83 299 2.0 5.0 0.00 0.00 0.00 71 1019.8
20260905200604 83 298 2.0 6.0 0.00 0.00 0.00 71 1019.8
20260905200504 83 300 2.0 6.0 0.00 0.00 0.00 71 1019.8
20260905200404 83 300 2.0 6.0 0.00 0.00 0.00 71 1019.7
20260905200304 83 301 2.0 6.0 0.00 0.00 0.00 71 1019.7
20260905200204 83 300 2.0 6.0 0.00 0.00 0.00 70 1019.8
20260905200104 83 299 2.0 6.0 0.00 0.00 0.00 70 1019.7
20260905200004 83 298 2.0 6.0 0.00 0.00 0.00 70 1019.8
20260905195904 83 297 2.0 6.0 0.00 0.00 0.00 70 1019.7
20260905195804 83 297 2.0 6.0 0.00 0.00 0.00 70 1019.7
20260905195704 83 296 2.0 6.0 0.00 0.00 0.00 70 1019.8
20260905195604 83 295 3.0 8.0 0.00 0.00 0.00 71 1019.7
20260905195504 83 294 3.0 8.0 0.00 0.00 0.00 70 1019.7
20260905195404 83 295 3.0 8.0 0.00 0.00 0.00 70 1019.7
20260905195306 83 294 3.0 8.0 0.00 0.00 0.00 70 1019.7
20260905195204 83 294 3.0 8.0 0.00 0.00 0.00 71 1019.7
20260905195104 83 294 3.0 8.0 0.00 0.00 0.00 70 1019.8
20260905195004 83 294 3.0 8.0 0.00 0.00 0.00 70 1019.7
20260905194904 83 295 4.0 8.0 0.00 0.00 0.00 70 1019.6
20260905194804 83 294 4.0 8.0 0.00 0.00 0.00 70 1019.7
20260905194704 83 295 3.0 8.0 0.00 0.00 0.00 71 1019.8
20260905194604 83 297 3.0 7.0 0.00 0.00 0.00 70 1019.7
20260905194504 83 296 3.0 7.0 0.00 0.00 0.00 70 1019.7
20260905194404 83 297 3.0 7.0 0.00 0.00 0.00 70 1019.7
20260905194304 83 297 3.0 7.0 0.00 0.00 0.00 70 1019.7
20260905194204 83 297 3.0 7.0 0.00 0.00 0.00 70 1019.7
20260905194103 83 298 3.0 7.0 0.00 0.00 0.00 70 1019.7
20260905194004 83 299 3.0 7.0 0.00 0.00 0.00 70 1019.7
20260905193904 83 299 3.0 7.0 0.00 0.00 0.00 70 1019.9
20260905193804 83 300 3.0 7.0 0.00 0.00 0.00 70 1019.7
20260905193703 83 299 3.0 7.0 0.00 0.00 0.00 70 1019.7
20260905193604 83 298 3.0 7.0 0.00 0.00 0.00 70 1019.8
20260905193504 83 298 3.0 7.0 0.00 0.00 0.00 70 1019.7
20260905193404 83 297 3.0 7.0 0.00 0.00 0.00 70 1019.8
20260905193304 83 298 3.0 7.0 0.00 0.00 0.00 70 1019.7
20260905193203 83 298 3.0 7.0 0.00 0.00 0.00 70 1019.7
20260905193103 83 297 3.0 7.0 0.00 0.00 0.00 70 1019.7
20260905193003 83 298 3.0 7.0 0.00 0.00 0.00 70 1019.7
20260905192903 83 298 3.0 7.0 0.00 0.00 0.00 70 1019.7
20260905192804 83 299 3.0 7.0 0.00 0.00 0.00 71 1019.7
20260905192704 83 300 2.0 7.0 0.00 0.00 0.00 70 1019.6
20260905192603 83 300 2.0 7.0 0.00 0.00 0.00 70 1019.6
20260905192504 83 300 2.0 7.0 0.00 0.00 0.00 70 1019.6
20260905192403 83 300 2.0 7.0 0.00 0.00 0.00 70 1019.6
20260905192306 83 299 2.0 7.0 0.00 0.00 0.00 70 1019.5
20260905192203 83 298 2.0 6.0 0.00 0.00 0.00 70 1019.6
20260905192103 83 300 2.0 6.0 0.00 0.00 0.00 70 1019.6
20260905192004 83 300 2.0 6.0 0.00 0.00 0.00 70 1019.6
20260905191903 83 301 2.0 6.0 0.00 0.00 0.00 70 1019.6
20260905191803 83 300 2.0 7.0 0.00 0.00 0.00 70 1019.6
20260905191703 83 299 3.0 8.0 0.00 0.00 0.00 70 1019.6
20260905191603 83 298 3.0 8.0 0.00 0.00 0.00 70 1019.5
20260905191504 83 298 3.0 8.0 0.00 0.00 0.00 70 1019.5
20260905191403 83 298 3.0 8.0 0.00 0.00 0.00 70 1019.5
20260905191303 83 298 3.0 8.0 0.00 0.00 0.00 70 1019.6
20260905191203 83 298 3.0 8.0 0.00 0.00 0.00 70 1019.6
20260905191103 83 298 3.0 8.0 0.00 0.00 0.00 70 1019.6
20260905191003 83 297 3.0 8.0 0.00 0.00 0.00 71 1019.6
20260905190903 83 296 3.0 8.0 0.00 0.00 0.00 70 1019.7
20260905190803 83 296 3.0 8.0 0.00 0.00 0.00 70 1019.6
20260905190703 83 296 3.0 7.0 0.00 0.00 0.00 70 1019.6
20260905190603 83 296 3.0 7.0 0.00 0.00 0.00 70 1019.5
20260905190503 83 295 3.0 7.0 0.00 0.00 0.00 70 1019.5
20260905190403 83 295 3.0 7.0 0.00 0.00 0.00 70 1019.5
20260905190303 83 295 4.0 7.0 0.00 0.00 0.00 70 1019.5
20260905190203 83 295 3.0 7.0 0.00 0.00 0.00 70 1019.3
20260905190103 83 295 3.0 7.0 0.00 0.00 0.00 70 1019.4
20260905190003 83 294 3.0 7.0 0.00 0.00 0.00 70 1019.4
20260905185903 83 295 3.0 7.0 0.00 0.00 0.00 70 1019.4
20260905185803 83 294 3.0 7.0 0.00 0.00 0.00 70 1019.3
20260905185703 83 295 3.0 7.0 0.00 0.00 0.00 70 1019.4
20260905185603 83 295 3.0 7.0 0.00 0.00 0.00 70 1019.3
20260905185503 83 294 3.0 7.0 0.00 0.00 0.00 70 1019.4
20260905185403 83 294 3.0 7.0 0.00 0.00 0.00 70 1019.3
20260905185305 83 294 3.0 7.0 0.00 0.00 0.00 70 1019.3
20260905185203 83 294 3.0 7.0 0.00 0.00 0.00 70 1019.3
20260905185103 83 294 3.0 7.0 0.00 0.00 0.00 70 1019.3
20260905185003 83 294 3.0 7.0 0.00 0.00 0.00 70 1019.2
20260905184903 83 294 2.0 7.0 0.00 0.00 0.00 70 1019.2
20260905184803 83 293 2.0 7.0 0.00 0.00 0.00 70 1019.3
20260905184703 83 293 2.0 7.0 0.00 0.00 0.00 70 1019.2
20260905184603 83 293 2.0 7.0 0.00 0.00 0.00 70 1019.2
20260905184503 83 294 2.0 7.0 0.00 0.00 0.00 70 1019.2
20260905184403 83 294 2.0 7.0 0.00 0.00 0.00 70 1019.3
20260905184303 83 296 3.0 7.0 0.00 0.00 0.00 70 1019.3
20260905184203 83 297 3.0 7.0 0.00 0.00 0.00 70 1019.4
20260905184103 83 297 3.0 7.0 0.00 0.00 0.00 70 1019.3
20260905184003 83 298 3.0 7.0 0.00 0.00 0.00 70 1019.4
20260905183903 83 298 3.0 7.0 0.00 0.00 0.00 70 1019.5
20260905183803 83 298 3.0 7.0 0.00 0.00 0.00 70 1019.4
20260905183703 83 298 3.0 7.0 0.00 0.00 0.00 70 1019.5
20260905183603 83 298 3.0 7.0 0.00 0.00 0.00 70 1019.5
20260905183503 83 298 3.0 7.0 0.00 0.00 0.00 70 1019.3
20260905183403 83 298 3.0 7.0 0.00 0.00 0.00 70 1019.3
20260905183303 83 297 3.0 7.0 0.00 0.00 0.00 70 1019.4
20260905183203 83 296 3.0 7.0 0.00 0.00 0.00 70 1019.4
20260905183103 83 297 3.0 7.0 0.00 0.00 0.00 70 1019.4
20260905183003 83 295 3.0 7.0 0.00 0.00 0.00 70 1019.4
20260905182903 83 296 3.0 7.0 0.00 0.00 0.00 70 1019.4
20260905182803 83 296 3.0 7.0 0.00 0.00 0.00 70 1019.3
20260905182703 83 299 3.0 7.0 0.00 0.00 0.00 70 1019.2
20260905182603 83 299 3.0 7.0 0.00 0.00 0.00 70 1019.3
20260905182503 83 300 4.0 7.0 0.00 0.00 0.00 70 1019.3
20260905182403 83 299 4.0 7.0 0.00 0.00 0.00 70 1019.2
20260905182305 83 299 4.0 7.0 0.00 0.00 0.00 70 1019.1
20260905182203 83 299 4.0 7.0 0.00 0.00 0.00 70 1019.2
20260905182103 83 298 4.0 7.0 0.00 0.00 0.00 70 1019.2
20260905182003 83 299 4.0 7.0 0.00 0.00 0.00 70 1019.1
20260905181903 83 298 4.0 7.0 0.00 0.00 0.00 70 1019.2
20260905181803 83 297 4.0 7.0 0.00 0.00 0.00 70 1019.1
20260905181703 83 297 4.0 7.0 0.00 0.00 0.00 70 1019.1
20260905181603 83 296 4.0 7.0 0.00 0.00 0.00 70 1019.2
20260905181503 83 295 4.0 8.0 0.00 0.00 0.00 70 1019.3
20260905181403 83 296 5.0 8.0 0.00 0.00 0.00 70 1019.2
20260905181303 83 296 4.0 8.0 0.00 0.00 0.00 70 1019.3
20260905181203 83 296 4.0 8.0 0.00 0.00 0.00 70 1019.2
20260905181103 83 297 4.0 8.0 0.00 0.00 0.00 69 1019.2
20260905181003 83 297 4.0 8.0 0.00 0.00 0.00 69 1019.1
20260905180903 83 298 4.0 8.0 0.00 0.00 0.00 69 1019.1
20260905180803 84 298 3.0 8.0 0.00 0.00 0.00 69 1019.0
20260905180703 84 297 3.0 8.0 0.00 0.00 0.00 69 1019.1
20260905180603 84 297 3.0 8.0 0.00 0.00 0.00 69 1019.1
20260905180503 84 297 3.0 7.0 0.00 0.00 0.00 68 1019.1
20260905180403 84 299 3.0 6.0 0.00 0.00 0.00 68 1019.0
20260905180303 84 298 3.0 6.0 0.00 0.00 0.00 68 1019.1
20260905180203 84 299 2.0 6.0 0.00 0.00 0.00 68 1019.0
20260905180104 84 298 2.0 6.0 0.00 0.00 0.00 68 1019.0
20260905180004 84 298 2.0 6.0 0.00 0.00 0.00 68 1019.0
20260905175904 84 298 2.0 6.0 0.00 0.00 0.00 68 1018.9
20260905175804 84 297 2.0 6.0 0.00 0.00 0.00 68 1019.0
20260905175704 84 297 2.0 6.0 0.00 0.00 0.00 68 1019.0
20260905175604 84 298 2.0 6.0 0.00 0.00 0.00 68 1019.0
20260905175504 84 298 2.0 6.0 0.00 0.00 0.00 68 1019.0
20260905175404 84 298 2.0 6.0 0.00 0.00 0.00 67 1019.0
20260905175306 84 300 2.0 6.0 0.00 0.00 0.00 67 1019.0
20260905175204 84 300 2.0 6.0 0.00 0.00 0.00 67 1018.9
20260905175104 84 300 3.0 6.0 0.00 0.00 0.00 67 1018.9
20260905175004 84 299 3.0 6.0 0.00 0.00 0.00 67 1018.9
20260905174904 84 299 3.0 6.0 0.00 0.00 0.00 67 1018.8
20260905174804 84 299 3.0 6.0 0.00 0.00 0.00 67 1018.9
20260905174704 84 299 3.0 6.0 0.00 0.00 0.00 67 1019.0
20260905174604 84 299 3.0 6.0 0.00 0.00 0.00 67 1018.9
20260905174504 84 299 2.0 6.0 0.00 0.00 0.00 66 1018.9
20260905174404 84 298 3.0 6.0 0.00 0.00 0.00 66 1018.9
20260905174304 84 296 3.0 6.0 0.00 0.00 0.00 66 1018.9
20260905174204 84 296 3.0 6.0 0.00 0.00 0.00 66 1018.9
20260905174104 84 296 3.0 6.0 0.00 0.00 0.00 66 1018.9
20260905174004 84 295 3.0 6.0 0.00 0.00 0.00 66 1019.0
20260905173904 84 296 3.0 6.0 0.00 0.00 0.00 66 1019.0
20260905173804 84 296 2.0 6.0 0.00 0.00 0.00 66 1019.0
20260905173704 84 296 2.0 6.0 0.00 0.00 0.00 66 1019.0
20260905173604 84 298 2.0 6.0 0.00 0.00 0.00 65 1018.9
20260905173504 84 299 3.0 8.0 0.00 0.00 0.00 65 1018.9
20260905173404 84 299 3.0 8.0 0.00 0.00 0.00 65 1018.9
20260905173304 84 300 3.0 8.0 0.00 0.00 0.00 65 1018.9
20260905173204 84 301 3.0 8.0 0.00 0.00 0.00 65 1018.9
20260905173104 84 300 3.0 8.0 0.00 0.00 0.00 65 1018.9
20260905173004 84 300 3.0 8.0 0.00 0.00 0.00 65 1018.9
20260905172904 85 300 3.0 8.0 0.00 0.00 0.00 65 1018.8
20260905172804 85 299 3.0 8.0 0.00 0.00 0.00 65 1018.9
20260905172704 85 299 3.0 8.0 0.00 0.00 0.00 65 1018.7
20260905172604 85 299 3.0 8.0 0.00 0.00 0.00 65 1018.8
20260905172504 85 299 3.0 7.0 0.00 0.00 0.00 64 1018.8
20260905172404 85 300 3.0 7.0 0.00 0.00 0.00 64 1018.7
20260905172305 85 300 3.0 7.0 0.00 0.00 0.00 64 1018.6
20260905172204 85 301 4.0 6.0 0.00 0.00 0.00 64 1018.6
20260905172104 85 301 4.0 6.0 0.00 0.00 0.00 63 1018.7
20260905172004 85 301 4.0 6.0 0.00 0.00 0.00 63 1018.8
20260905171904 85 300 4.0 7.0 0.00 0.00 0.00 63 1018.9
20260905171804 85 300 4.0 7.0 0.00 0.00 0.00 63 1018.9
20260905171704 85 300 4.0 7.0 0.00 0.00 0.00 63 1018.9
20260905171604 85 299 4.0 7.0 0.00 0.00 0.00 63 1018.9
20260905171504 85 298 4.0 7.0 0.00 0.00 0.00 63 1018.8
20260905171403 85 298 3.0 7.0 0.00 0.00 0.00 63 1018.8
20260905171304 85 299 3.0 7.0 0.00 0.00 0.00 63 1018.8
20260905171203 85 299 3.0 7.0 0.00 0.00 0.00 62 1018.9
20260905171103 85 298 3.0 7.0 0.00 0.00 0.00 62 1018.8
20260905171004 85 299 3.0 9.0 0.00 0.00 0.00 62 1018.8
20260905170903 85 300 3.0 10.0 0.00 0.00 0.00 62 1018.7
20260905170803 85 301 3.0 10.0 0.00 0.00 0.00 62 1018.7
20260905170704 85 301 4.0 10.0 0.00 0.00 0.00 62 1018.7
20260905170603 85 301 4.0 10.0 0.00 0.00 0.00 62 1018.6
20260905170503 85 302 4.0 10.0 0.00 0.00 0.00 62 1018.8
20260905170404 85 302 4.0 10.0 0.00 0.00 0.00 62 1018.8
20260905170303 85 300 4.0 10.0 0.00 0.00 0.00 62 1018.8
20260905170203 85 301 4.0 10.0 0.00 0.00 0.00 62 1018.8
20260905170104 85 302 4.0 10.0 0.00 0.00 0.00 62 1018.7
20260905170003 85 302 4.0 10.0 0.00 0.00 0.00 62 1018.8
20260905165904 86 302 4.0 8.0 0.00 0.00 0.00 61 1018.7
20260905165803 86 303 4.0 8.0 0.00 0.00 0.00 61 1018.7
20260905165703 86 304 4.0 8.0 0.00 0.00 0.00 61 1018.7
20260905165605 86 303 4.0 8.0 0.00 0.00 0.00 61 1018.6
20260905165503 86 302 4.0 8.0 0.00 0.00 0.00 61 1018.6
20260905165403 86 301 3.0 8.0 0.00 0.00 0.00 61 1018.6
20260905165306 86 302 3.0 8.0 0.00 0.00 0.00 61 1018.5
20260905165203 86 300 3.0 8.0 0.00 0.00 0.00 61 1018.6
20260905165103 86 299 3.0 8.0 0.00 0.00 0.00 61 1018.6
20260905165003 86 299 3.0 8.0 0.00 0.00 0.00 60 1018.6
20260905164903 86 298 3.0 8.0 0.00 0.00 0.00 60 1018.7
20260905164803 86 296 2.0 7.0 0.00 0.00 0.00 60 1018.7
20260905164703 86 294 2.0 6.0 0.00 0.00 0.00 60 1018.6
20260905164603 86 294 2.0 6.0 0.00 0.00 0.00 60 1018.7
20260905164503 86 297 2.0 7.0 0.00 0.00 0.00 60 1018.6
20260905164403 86 297 3.0 9.0 0.00 0.00 0.00 59 1018.7
20260905164303 86 297 3.0 9.0 0.00 0.00 0.00 59 1018.6
20260905164203 86 297 3.0 9.0 0.00 0.00 0.00 59 1018.6
20260905164103 86 297 3.0 9.0 0.00 0.00 0.00 59 1018.5
20260905164003 86 297 3.0 9.0 0.00 0.00 0.00 59 1018.6
20260905163903 86 298 3.0 9.0 0.00 0.00 0.00 59 1018.5
20260905163803 86 298 3.0 9.0 0.00 0.00 0.00 59 1018.6
20260905163703 87 299 3.0 9.0 0.00 0.00 0.00 59 1018.6
20260905163603 87 299 3.0 9.0 0.00 0.00 0.00 59 1018.6
20260905163503 87 300 3.0 9.0 0.00 0.00 0.00 58 1018.7
20260905163403 87 299 3.0 9.0 0.00 0.00 0.00 58 1018.6
20260905163303 87 300 3.0 7.0 0.00 0.00 0.00 58 1018.5
20260905163203 87 299 3.0 7.0 0.00 0.00 0.00 58 1018.5
20260905163103 87 300 3.0 7.0 0.00 0.00 0.00 58 1018.5
20260905163003 87 301 3.0 7.0 0.00 0.00 0.00 58 1018.6
20260905162903 87 301 3.0 7.0 0.00 0.00 0.00 58 1018.5
20260905162803 87 298 3.0 7.0 0.00 0.00 0.00 58 1018.9
20260905162703 87 299 2.0 7.0 0.00 0.00 0.00 57 1018.8
20260905162603 87 298 2.0 6.0 0.00 0.00 0.00 58 1018.9
20260905162503 87 297 2.0 6.0 0.00 0.00 0.00 58 1018.8
20260905162403 87 299 2.0 6.0 0.00 0.00 0.00 58 1018.7
20260905162305 87 299 2.0 6.0 0.00 0.00 0.00 58 1018.8
20260905162203 87 301 2.0 6.0 0.00 0.00 0.00 58 1018.8
20260905162103 87 300 2.0 6.0 0.00 0.00 0.00 57 1018.9
20260905162003 87 300 2.0 8.0 0.00 0.00 0.00 57 1018.8
20260905161903 87 301 2.0 8.0 0.00 0.00 0.00 57 1018.7
20260905161803 87 301 2.0 8.0 0.00 0.00 0.00 57 1018.9
20260905161703 87 301 2.0 8.0 0.00 0.00 0.00 57 1018.8
20260905161603 87 302 2.0 8.0 0.00 0.00 0.00 57 1018.8
20260905161503 87 303 2.0 8.0 0.00 0.00 0.00 57 1018.7
20260905161403 87 301 2.0 8.0 0.00 0.00 0.00 57 1018.8
20260905161303 87 301 2.0 8.0 0.00 0.00 0.00 57 1018.8
20260905161203 88 301 2.0 8.0 0.00 0.00 0.00 56 1018.9
20260905161103 88 297 2.0 9.0 0.00 0.00 0.00 56 1018.8
20260905161003 88 296 2.0 9.0 0.00 0.00 0.00 56 1018.8
20260905160903 88 297 2.0 9.0 0.00 0.00 0.00 56 1018.7
20260905160803 88 300 2.0 9.0 0.00 0.00 0.00 55 1018.7
20260905160703 88 304 2.0 9.0 0.00 0.00 0.00 55 1018.7
20260905160603 88 304 2.0 9.0 0.00 0.00 0.00 55 1018.7
20260905160503 88 303 2.0 9.0 0.00 0.00 0.00 55 1018.8
20260905160403 88 303 2.0 9.0 0.00 0.00 0.00 55 1018.9
20260905160303 88 303 2.0 9.0 0.00 0.00 0.00 55 1018.8
20260905160203 88 303 2.0 9.0 0.00 0.00 0.00 55 1018.9
20260905160003 88 309 1.0 5.0 0.00 0.00 0.00 55 1018.9
20260905155903 88 307 1.0 5.0 0.00 0.00 0.00 55 1018.9
20260905155803 88 304 1.0 5.0 0.00 0.00 0.00 54 1018.8
20260905155703 88 297 1.0 5.0 0.00 0.00 0.00 54 1018.7
20260905155603 88 296 1.0 5.0 0.00 0.00 0.00 54 1018.8
20260905155503 88 296 1.0 5.0 0.00 0.00 0.00 54 1018.8
20260905155403 88 292 1.0 6.0 0.00 0.00 0.00 53 1018.8
20260905155306 89 295 1.0 6.0 0.00 0.00 0.00 53 1018.8
20260905155203 89 298 1.0 7.0 0.00 0.00 0.00 53 1018.9
20260905155103 89 298 1.0 7.0 0.00 0.00 0.00 53 1018.8
20260905155003 89 298 2.0 7.0 0.00 0.00 0.00 53 1018.8
20260905154903 89 299 2.0 7.0 0.00 0.00 0.00 53 1018.8
20260905154803 89 298 2.0 7.0 0.00 0.00 0.00 53 1018.9
20260905154703 89 297 2.0 7.0 0.00 0.00 0.00 52 1018.8
20260905154603 89 298 2.0 7.0 0.00 0.00 0.00 52 1018.8
20260905154503 89 298 2.0 7.0 0.00 0.00 0.00 52 1018.8
20260905154403 89 298 2.0 7.0 0.00 0.00 0.00 52 1018.8
20260905154303 89 297 1.0 7.0 0.00 0.00 0.00 52 1018.7
20260905154203 89 297 1.0 7.0 0.00 0.00 0.00 51 1018.7
20260905154103 89 298 1.0 7.0 0.00 0.00 0.00 51 1018.7
20260905154003 89 298 1.0 7.0 0.00 0.00 0.00 52 1018.7
20260905153903 89 298 1.0 6.0 0.00 0.00 0.00 52 1018.8
20260905153803 89 304 0.0 5.0 0.00 0.00 0.00 52 1018.7
20260905153703 89 304 0.0 5.0 0.00 0.00 0.00 52 1018.7
20260905153604 89 304 0.0 5.0 0.00 0.00 0.00 51 1018.7
20260905153504 89 308 1.0 6.0 0.00 0.00 0.00 51 1018.8
20260905153404 89 305 1.0 6.0 0.00 0.00 0.00 50 1018.8
20260905153304 89 305 1.0 6.0 0.00 0.00 0.00 50 1018.7
20260905153204 89 304 2.0 8.0 0.00 0.00 0.00 50 1018.7
20260905153104 89 305 1.0 8.0 0.00 0.00 0.00 50 1018.8
20260905153004 89 305 1.0 8.0 0.00 0.00 0.00 50 1018.7
20260905152904 90 304 1.0 8.0 0.00 0.00 0.00 49 1018.7
20260905152804 90 305 1.0 8.0 0.00 0.00 0.00 49 1018.7
20260905152704 90 305 1.0 8.0 0.00 0.00 0.00 49 1018.6
20260905152604 90 306 1.0 8.0 0.00 0.00 0.00 49 1018.6
20260905152504 90 306 1.0 8.0 0.00 0.00 0.00 48 1018.7
20260905152404 90 306 1.0 8.0 0.00 0.00 0.00 48 1018.7
20260905152306 90 309 1.0 8.0 0.00 0.00 0.00 48 1018.6
20260905152204 90 310 1.0 6.0 0.00 0.00 0.00 47 1018.7
20260905152104 90 309 1.0 6.0 0.00 0.00 0.00 47 1018.6
20260905152004 90 311 1.0 6.0 0.00 0.00 0.00 47 1018.6
20260905151904 90 311 1.0 6.0 0.00 0.00 0.00 47 1018.6
20260905151804 90 314 1.0 6.0 0.00 0.00 0.00 47 1018.6
20260905151704 90 306 1.0 9.0 0.00 0.00 0.00 46 1018.6
20260905151604 90 303 2.0 9.0 0.00 0.00 0.00 46 1018.7
20260905151504 90 301 2.0 9.0 0.00 0.00 0.00 46 1018.7
20260905151404 90 301 1.0 9.0 0.00 0.00 0.00 46 1018.7
20260905151304 90 300 1.0 9.0 0.00 0.00 0.00 46 1018.7
20260905151204 90 301 1.0 9.0 0.00 0.00 0.00 46 1018.6
20260905151104 90 301 1.0 9.0 0.00 0.00 0.00 45 1018.6
20260905151004 90 301 1.0 9.0 0.00 0.00 0.00 45 1018.6
20260905150904 90 301 1.0 9.0 0.00 0.00 0.00 45 1018.6
20260905150804 90 299 1.0 9.0 0.00 0.00 0.00 45 1018.6
20260905150704 90 298 1.0 8.0 0.00 0.00 0.00 46 1018.6
20260905150604 90 301 0.0 4.0 0.00 0.00 0.00 46 1018.6
20260905150504 90 301 0.0 4.0 0.00 0.00 0.00 46 1018.6
20260905150404 90 298 0.0 4.0 0.00 0.00 0.00 47 1018.6
20260905150304 90 294 0.0 3.0 0.00 0.00 0.00 48 1018.5
20260905150204 90 236 0.0 2.0 0.00 0.00 0.00 47 1018.5
20260905150104 90 225 0.0 2.0 0.00 0.00 0.00 47 1018.4
20260905150004 90 143 0.0 2.0 0.00 0.00 0.00 47 1018.5
20260905145904 90 138 0.0 3.0 0.00 0.00 0.00 46 1018.5
20260905145804 90 131 0.0 3.0 0.00 0.00 0.00 46 1018.6
20260905145704 90 131 0.0 3.0 0.00 0.00 0.00 46 1018.5
20260905145604 90 129 0.0 3.0 0.00 0.00 0.00 48 1018.5
20260905145504 90 132 0.0 3.0 0.00 0.00 0.00 49 1018.5
20260905145404 90 132 0.0 3.0 0.00 0.00 0.00 50 1018.4
20260905145306 90 115 1.0 5.0 0.00 0.00 0.00 50 1018.6
20260905145204 90 115 1.0 5.0 0.00 0.00 0.00 50 1018.6
20260905145104 90 118 1.0 5.0 0.00 0.00 0.00 49 1018.6
20260905145004 90 114 1.0 5.0 0.00 0.00 0.00 47 1018.6
20260905144904 90 110 1.0 5.0 0.00 0.00 0.00 46 1018.7
20260905144804 90 114 1.0 5.0 0.00 0.00 0.00 47 1018.7
20260905144704 90 114 1.0 5.0 0.00 0.00 0.00 48 1018.7
20260905144604 90 114 1.0 5.0 0.00 0.00 0.00 49 1018.6
20260905144503 90 113 1.0 5.0 0.00 0.00 0.00 49 1018.6
20260905144404 90 113 1.0 5.0 0.00 0.00 0.00 49 1018.5
20260905144304 90 118 0.0 5.0 0.00 0.00 0.00 48 1018.5
20260905144204 90 121 0.0 5.0 0.00 0.00 0.00 48 1018.6
20260905144104 90 100 0.0 2.0 0.00 0.00 0.00 47 1018.6
20260905144004 91 104 0.0 3.0 0.00 0.00 0.00 48 1018.6
20260905143904 91 107 0.0 3.0 0.00 0.00 0.00 48 1018.6
20260905143803 91 104 0.0 3.0 0.00 0.00 0.00 47 1018.6
20260905143704 91 103 0.0 3.0 0.00 0.00 0.00 47 1018.6
20260905143603 91 87 0.0 5.0 0.00 0.00 0.00 46 1018.6
20260905143504 91 336 1.0 8.0 0.00 0.00 0.00 46 1018.6
20260905143404 91 325 1.0 8.0 0.00 0.00 0.00 46 1018.5
20260905143303 91 329 1.0 8.0 0.00 0.00 0.00 46 1018.5
20260905143204 91 333 1.0 8.0 0.00 0.00 0.00 46 1018.5
20260905143104 91 325 1.0 8.0 0.00 0.00 0.00 47 1018.6
20260905143003 91 314 1.0 8.0 0.00 0.00 0.00 46 1018.6
20260905142903 91 308 2.0 9.0 0.00 0.00 0.00 46 1018.6
20260905142803 91 307 2.0 9.0 0.00 0.00 0.00 45 1018.6
20260905142703 91 308 2.0 9.0 0.00 0.00 0.00 45 1018.6
20260905142603 91 305 2.0 9.0 0.00 0.00 0.00 45 1018.6
20260905142503 91 303 2.0 9.0 0.00 0.00 0.00 46 1018.7
20260905142403 91 300 2.0 9.0 0.00 0.00 0.00 45 1018.6
20260905142306 91 299 2.0 9.0 0.00 0.00 0.00 45 1018.6
20260905142203 90 299 3.0 9.0 0.00 0.00 0.00 45 1018.7
20260905142103 90 298 3.0 9.0 0.00 0.00 0.00 45 1018.6
20260905142003 90 297 3.0 9.0 0.00 0.00 0.00 46 1018.6
20260905141903 90 296 3.0 9.0 0.00 0.00 0.00 46 1018.6
20260905141803 90 296 3.0 9.0 0.00 0.00 0.00 46 1018.6
20260905141703 90 295 4.0 9.0 0.00 0.00 0.00 46 1018.6
20260905141603 91 295 4.0 10.0 0.00 0.00 0.00 46 1018.7
20260905141503 90 296 4.0 10.0 0.00 0.00 0.00 46 1018.7
20260905141403 91 296 4.0 10.0 0.00 0.00 0.00 46 1018.8
20260905141303 91 296 4.0 10.0 0.00 0.00 0.00 46 1018.7
20260905141203 91 296 4.0 11.0 0.00 0.00 0.00 46 1018.8
20260905141103 91 297 4.0 11.0 0.00 0.00 0.00 46 1018.7
20260905141003 91 298 4.0 11.0 0.00 0.00 0.00 46 1018.9
20260905140903 91 298 4.0 11.0 0.00 0.00 0.00 46 1018.7
20260905140803 91 299 4.0 11.0 0.00 0.00 0.00 46 1018.7
20260905140703 91 301 3.0 11.0 0.00 0.00 0.00 46 1018.6
20260905140603 91 300 3.0 11.0 0.00 0.00 0.00 46 1018.7
20260905140503 91 301 4.0 11.0 0.00 0.00 0.00 46 1018.8
20260905140403 91 302 3.0 11.0 0.00 0.00 0.00 46 1018.7
20260905140303 91 303 4.0 11.0 0.00 0.00 0.00 46 1018.7
20260905140203 91 305 3.0 10.0 0.00 0.00 0.00 46 1018.6
20260905140103 91 303 3.0 10.0 0.00 0.00 0.00 45 1018.7
20260905140004 91 303 3.0 10.0 0.00 0.00 0.00 46 1018.8
20260905135903 91 305 3.0 10.0 0.00 0.00 0.00 46 1018.7
20260905135803 91 305 3.0 10.0 0.00 0.00 0.00 45 1018.8
20260905135703 91 305 3.0 10.0 0.00 0.00 0.00 45 1018.9
20260905135603 91 303 3.0 11.0 0.00 0.00 0.00 45 1018.9
20260905135503 91 303 3.0 11.0 0.00 0.00 0.00 45 1018.8
20260905135403 91 303 4.0 11.0 0.00 0.00 0.00 45 1018.8
20260905135306 91 301 4.0 11.0 0.00 0.00 0.00 44 1018.7
20260905135203 91 302 4.0 11.0 0.00 0.00 0.00 44 1018.6
20260905135103 91 302 4.0 11.0 0.00 0.00 0.00 44 1018.6
20260905135003 91 301 4.0 11.0 0.00 0.00 0.00 44 1018.6
20260905134903 91 302 4.0 11.0 0.00 0.00 0.00 43 1018.7
20260905134803 91 302 4.0 11.0 0.00 0.00 0.00 43 1018.7
20260905134703 91 301 4.0 11.0 0.00 0.00 0.00 43 1018.7
20260905134603 91 301 4.0 11.0 0.00 0.00 0.00 42 1018.8
20260905134503 92 300 3.0 11.0 0.00 0.00 0.00 41 1018.8
20260905134403 92 299 4.0 13.0 0.00 0.00 0.00 40 1018.8
20260905134303 91 299 4.0 13.0 0.00 0.00 0.00 40 1018.8
20260905134203 91 299 4.0 13.0 0.00 0.00 0.00 40 1018.9
20260905134103 92 299 4.0 14.0 0.00 0.00 0.00 39 1018.9
20260905134003 91 300 4.0 14.0 0.00 0.00 0.00 39 1018.8
20260905133903 91 300 4.0 14.0 0.00 0.00 0.00 38 1018.7
20260905133803 91 298 5.0 14.0 0.00 0.00 0.00 38 1018.7
20260905133703 91 299 5.0 14.0 0.00 0.00 0.00 37 1018.7
20260905133603 91 301 5.0 14.0 0.00 0.00 0.00 38 1018.9
20260905133503 91 301 5.0 14.0 0.00 0.00 0.00 39 1018.8
20260905133403 91 301 4.0 14.0 0.00 0.00 0.00 39 1018.8
20260905133303 91 303 4.0 14.0 0.00 0.00 0.00 39 1018.9
20260905133203 91 302 4.0 14.0 0.00 0.00 0.00 39 1018.9
20260905133103 91 298 4.0 12.0 0.00 0.00 0.00 38 1018.9
20260905133003 92 299 4.0 12.0 0.00 0.00 0.00 38 1018.9
20260905132903 92 301 3.0 12.0 0.00 0.00 0.00 39 1018.9
20260905132803 92 302 3.0 12.0 0.00 0.00 0.00 39 1018.9
20260905132703 92 302 3.0 9.0 0.00 0.00 0.00 39 1018.9
20260905132603 92 297 3.0 9.0 0.00 0.00 0.00 40 1018.9
20260905132503 92 297 3.0 9.0 0.00 0.00 0.00 39 1018.9
20260905132403 92 299 3.0 9.0 0.00 0.00 0.00 39 1018.9
20260905132305 92 298 4.0 9.0 0.00 0.00 0.00 39 1018.9
20260905132203 92 299 4.0 9.0 0.00 0.00 0.00 39 1018.9
20260905132103 92 303 3.0 9.0 0.00 0.00 0.00 39 1018.9
20260905132003 92 302 3.0 9.0 0.00 0.00 0.00 39 1018.9
20260905131903 92 299 3.0 9.0 0.00 0.00 0.00 39 1018.9
20260905131803 92 300 2.0 9.0 0.00 0.00 0.00 39 1018.9
20260905131703 92 300 2.0 9.0 0.00 0.00 0.00 39 1018.8
20260905131603 92 303 2.0 9.0 0.00 0.00 0.00 39 1018.8
20260905131503 92 305 2.0 9.0 0.00 0.00 0.00 39 1018.8
20260905131403 92 302 1.0 9.0 0.00 0.00 0.00 40 1018.8
20260905131303 92 305 1.0 9.0 0.00 0.00 0.00 40 1018.8
20260905131203 92 303 1.0 9.0 0.00 0.00 0.00 40 1018.7
20260905131103 92 297 1.0 9.0 0.00 0.00 0.00 41 1018.8
20260905131003 92 299 1.0 9.0 0.00 0.00 0.00 41 1018.9
20260905130903 92 297 1.0 9.0 0.00 0.00 0.00 41 1018.9
20260905130804 92 296 2.0 9.0 0.00 0.00 0.00 41 1018.9
20260905130704 92 295 2.0 9.0 0.00 0.00 0.00 41 1018.9
20260905130604 92 296 2.0 9.0 0.00 0.00 0.00 41 1018.9
20260905130504 92 296 2.0 9.0 0.00 0.00 0.00 41 1018.9
20260905130404 92 297 2.0 9.0 0.00 0.00 0.00 41 1018.9
20260905130304 92 295 2.0 7.0 0.00 0.00 0.00 41 1018.9
20260905130204 92 293 2.0 7.0 0.00 0.00 0.00 41 1018.9
20260905130104 92 292 2.0 7.0 0.00 0.00 0.00 40 1019.0
20260905130004 92 293 2.0 7.0 0.00 0.00 0.00 40 1019.0
20260905125904 92 295 2.0 9.0 0.00 0.00 0.00 40 1018.9
20260905125804 92 297 1.0 9.0 0.00 0.00 0.00 40 1019.0
20260905125704 92 299 1.0 9.0 0.00 0.00 0.00 40 1019.0
20260905125604 92 303 1.0 9.0 0.00 0.00 0.00 39 1019.0
20260905125504 92 301 1.0 9.0 0.00 0.00 0.00 39 1019.0
20260905125404 92 301 1.0 9.0 0.00 0.00 0.00 39 1019.0
20260905125306 92 306 1.0 9.0 0.00 0.00 0.00 39 1019.1
20260905125204 92 307 1.0 9.0 0.00 0.00 0.00 39 1019.1
20260905125104 92 303 2.0 9.0 0.00 0.00 0.00 39 1019.1
20260905125004 92 302 2.0 9.0 0.00 0.00 0.00 38 1019.2
20260905124904 92 302 2.0 8.0 0.00 0.00 0.00 38 1019.1
20260905124804 92 302 2.0 8.0 0.00 0.00 0.00 38 1019.0
20260905124704 92 300 2.0 8.0 0.00 0.00 0.00 38 1019.0
20260905124604 92 297 1.0 8.0 0.00 0.00 0.00 38 1019.0
20260905124504 92 300 1.0 8.0 0.00 0.00 0.00 38 1019.0
20260905124404 92 299 2.0 8.0 0.00 0.00 0.00 38 1019.0
20260905124304 92 296 2.0 8.0 0.00 0.00 0.00 38 1019.0
20260905124204 92 296 2.0 7.0 0.00 0.00 0.00 38 1019.1
20260905124104 92 299 2.0 6.0 0.00 0.00 0.00 38 1019.0
20260905124004 92 299 1.0 6.0 0.00 0.00 0.00 39 1019.1
20260905123904 92 301 1.0 6.0 0.00 0.00 0.00 39 1019.1
20260905123804 92 300 2.0 7.0 0.00 0.00 0.00 39 1019.1
20260905123704 92 300 2.0 7.0 0.00 0.00 0.00 39 1019.2
20260905123604 92 301 2.0 7.0 0.00 0.00 0.00 38 1019.2
20260905123504 92 301 2.0 7.0 0.00 0.00 0.00 38 1019.3
20260905123404 92 301 2.0 7.0 0.00 0.00 0.00 38 1019.2
20260905123304 92 304 1.0 7.0 0.00 0.00 0.00 38 1019.2
20260905123204 92 305 1.0 7.0 0.00 0.00 0.00 39 1019.2
20260905123104 92 309 1.0 7.0 0.00 0.00 0.00 39 1019.2
20260905123004 92 309 1.0 7.0 0.00 0.00 0.00 39 1019.2
20260905122904 91 311 1.0 7.0 0.00 0.00 0.00 39 1019.2
20260905122804 91 310 1.0 7.0 0.00 0.00 0.00 39 1019.2
20260905122704 91 308 1.0 7.0 0.00 0.00 0.00 39 1019.1
20260905122603 91 308 1.0 7.0 0.00 0.00 0.00 38 1019.1
20260905122504 91 307 1.0 7.0 0.00 0.00 0.00 38 1019.1
20260905122404 91 309 1.0 7.0 0.00 0.00 0.00 38 1019.1
20260905122306 91 310 1.0 7.0 0.00 0.00 0.00 38 1019.0
20260905122203 91 312 1.0 7.0 0.00 0.00 0.00 38 1019.1
20260905122103 91 306 1.0 7.0 0.00 0.00 0.00 38 1019.1
20260905122004 91 303 1.0 8.0 0.00 0.00 0.00 38 1019.1
20260905121903 91 299 2.0 10.0 0.00 0.00 0.00 38 1019.1
20260905121804 91 301 2.0 10.0 0.00 0.00 0.00 39 1019.3
20260905121703 91 300 2.0 10.0 0.00 0.00 0.00 40 1019.1
20260905121603 91 299 2.0 10.0 0.00 0.00 0.00 40 1019.2
20260905121504 91 299 2.0 10.0 0.00 0.00 0.00 39 1019.2
20260905121403 91 294 2.0 10.0 0.00 0.00 0.00 37 1019.2
20260905121303 91 295 3.0 11.0 0.00 0.00 0.00 35 1019.3
20260905121204 91 295 3.0 11.0 0.00 0.00 0.00 35 1019.3
20260905121103 91 297 3.0 11.0 0.00 0.00 0.00 35 1019.4
20260905121004 91 296 3.0 11.0 0.00 0.00 0.00 35 1019.3
20260905120904 91 296 2.0 11.0 0.00 0.00 0.00 36 1019.3
20260905120804 91 296 2.0 11.0 0.00 0.00 0.00 36 1019.3
20260905120704 91 299 2.0 11.0 0.00 0.00 0.00 36 1019.3
20260905120604 91 299 2.0 11.0 0.00 0.00 0.00 36 1019.2
20260905120503 91 299 2.0 11.0 0.00 0.00 0.00 36 1019.3
20260905120403 91 307 1.0 11.0 0.00 0.00 0.00 38 1019.3
20260905120304 91 314 1.0 4.0 0.00 0.00 0.00 38 1019.4
20260905120203 91 323 1.0 4.0 0.00 0.00 0.00 38 1019.4
20260905120104 91 311 1.0 6.0 0.00 0.00 0.00 37 1019.4
20260905120004 91 310 1.0 6.0 0.00 0.00 0.00 37 1019.4
20260905115903 91 300 1.0 11.0 0.00 0.00 0.00 37 1019.5
20260905115803 91 305 1.0 13.0 0.00 0.00 0.00 39 1019.4
20260905115703 91 301 2.0 13.0 0.00 0.00 0.00 39 1019.5
20260905115604 91 300 2.0 13.0 0.00 0.00 0.00 38 1019.4
20260905115503 91 300 2.0 13.0 0.00 0.00 0.00 37 1019.3
20260905115404 91 299 2.0 13.0 0.00 0.00 0.00 37 1019.3
20260905115306 91 301 3.0 13.0 0.00 0.00 0.00 37 1019.3
20260905115203 91 301 3.0 13.0 0.00 0.00 0.00 36 1019.4
20260905115103 91 302 3.0 13.0 0.00 0.00 0.00 35 1019.3
20260905115003 91 303 4.0 13.0 0.00 0.00 0.00 35 1019.3
20260905114903 91 304 4.0 13.0 0.00 0.00 0.00 37 1019.3
20260905114803 91 304 4.0 13.0 0.00 0.00 0.00 37 1019.4
20260905114703 91 305 4.0 13.0 0.00 0.00 0.00 39 1019.4
20260905114603 91 307 4.0 13.0 0.00 0.00 0.00 39 1019.4
20260905114504 91 306 4.0 13.0 0.00 0.00 0.00 39 1019.4
20260905114403 91 305 4.0 13.0 0.00 0.00 0.00 39 1019.5
20260905114303 91 305 4.0 13.0 0.00 0.00 0.00 39 1019.6
20260905114203 91 306 3.0 13.0 0.00 0.00 0.00 38 1019.6
20260905114103 91 308 3.0 13.0 0.00 0.00 0.00 37 1019.4
20260905114003 91 308 3.0 13.0 0.00 0.00 0.00 36 1019.5
20260905113903 91 303 3.0 13.0 0.00 0.00 0.00 37 1019.5
20260905113803 91 299 2.0 10.0 0.00 0.00 0.00 40 1019.4
20260905113703 91 298 2.0 10.0 0.00 0.00 0.00 40 1019.4
20260905113603 91 300 2.0 10.0 0.00 0.00 0.00 40 1019.5
20260905113503 91 302 2.0 10.0 0.00 0.00 0.00 42 1019.6
20260905113403 90 303 2.0 10.0 0.00 0.00 0.00 42 1019.5
20260905113303 90 304 2.0 10.0 0.00 0.00 0.00 42 1019.5
20260905113203 90 306 2.0 10.0 0.00 0.00 0.00 42 1019.5
20260905113103 90 303 2.0 10.0 0.00 0.00 0.00 42 1019.5
20260905113003 90 304 2.0 10.0 0.00 0.00 0.00 42 1019.5
20260905112903 90 313 2.0 10.0 0.00 0.00 0.00 42 1019.6
20260905112803 90 328 2.0 6.0 0.00 0.00 0.00 43 1019.6
20260905112703 90 322 1.0 6.0 0.00 0.00 0.00 43 1019.6
20260905112603 90 300 2.0 6.0 0.00 0.00 0.00 44 1019.6
20260905112503 90 294 2.0 6.0 0.00 0.00 0.00 44 1019.6
20260905112403 90 292 2.0 8.0 0.00 0.00 0.00 44 1019.6
20260905112305 90 295 2.0 8.0 0.00 0.00 0.00 45 1019.6
20260905112203 90 287 2.0 9.0 0.00 0.00 0.00 46 1019.6
20260905112103 90 292 1.0 9.0 0.00 0.00 0.00 46 1019.6
20260905112003 90 291 1.0 9.0 0.00 0.00 0.00 46 1019.7
20260905111903 90 292 1.0 9.0 0.00 0.00 0.00 46 1019.7
20260905111803 90 290 1.0 9.0 0.00 0.00 0.00 46 1019.7
20260905111703 90 291 1.0 9.0 0.00 0.00 0.00 46 1019.7
20260905111603 90 293 1.0 9.0 0.00 0.00 0.00 46 1019.7
20260905111503 90 294 1.0 9.0 0.00 0.00 0.00 47 1019.7
20260905111403 90 295 1.0 9.0 0.00 0.00 0.00 49 1019.6
20260905111303 90 289 1.0 9.0 0.00 0.00 0.00 51 1019.6
20260905111203 90 238 0.0 4.0 0.00 0.00 0.00 54 1019.6
20260905111103 90 266 1.0 4.0 0.00 0.00 0.00 54 1019.6
20260905111003 90 287 1.0 5.0 0.00 0.00 0.00 54 1019.5
20260905110903 90 292 1.0 7.0 0.00 0.00 0.00 54 1019.4
20260905110803 90 291 1.0 7.0 0.00 0.00 0.00 53 1019.6
20260905110703 90 298 1.0 7.0 0.00 0.00 0.00 53 1019.5
20260905110603 90 300 1.0 7.0 0.00 0.00 0.00 51 1019.6
20260905110503 90 303 1.0 7.0 0.00 0.00 0.00 49 1019.6
20260905110403 90 302 1.0 7.0 0.00 0.00 0.00 47 1019.6
20260905110303 90 304 1.0 7.0 0.00 0.00 0.00 46 1019.6
20260905110203 90 298 2.0 7.0 0.00 0.00 0.00 45 1019.6
20260905110003 90 296 2.0 7.0 0.00 0.00 0.00 46 1019.6
20260905105903 90 289 2.0 6.0 0.00 0.00 0.00 46 1019.6
20260905105803 90 281 1.0 6.0 0.00 0.00 0.00 48 1019.6
20260905105703 90 144 1.0 6.0 0.00 0.00 0.00 50 1019.6
20260905105603 90 133 1.0 6.0 0.00 0.00 0.00 51 1019.6
20260905105503 90 140 1.0 6.0 0.00 0.00 0.00 51 1019.4
20260905105403 90 288 2.0 10.0 0.00 0.00 0.00 50 1019.3
20260905105306 90 297 2.0 10.0 0.00 0.00 0.00 48 1019.4
20260905105203 90 301 3.0 10.0 0.00 0.00 0.00 47 1019.4
20260905105103 90 299 3.0 10.0 0.00 0.00 0.00 48 1019.3
20260905105003 90 299 3.0 10.0 0.00 0.00 0.00 48 1019.4
20260905104903 90 298 4.0 10.0 0.00 0.00 0.00 48 1019.4
20260905104803 90 300 4.0 10.0 0.00 0.00 0.00 46 1019.2
20260905104703 90 299 4.0 10.0 0.00 0.00 0.00 45 1019.4
20260905104603 90 299 4.0 10.0 0.00 0.00 0.00 45 1019.2
20260905104503 90 299 5.0 10.0 0.00 0.00 0.00 45 1019.3
20260905104403 90 299 5.0 11.0 0.00 0.00 0.00 45 1019.3
20260905104303 90 296 5.0 11.0 0.00 0.00 0.00 44 1019.4
20260905104203 90 295 4.0 11.0 0.00 0.00 0.00 44 1019.3
20260905104103 90 295 4.0 11.0 0.00 0.00 0.00 46 1019.3
20260905104003 90 296 4.0 11.0 0.00 0.00 0.00 46 1019.3
20260905103903 90 295 4.0 11.0 0.00 0.00 0.00 46 1019.3
20260905103803 90 292 4.0 11.0 0.00 0.00 0.00 46 1019.3
20260905103703 90 292 5.0 11.0 0.00 0.00 0.00 46 1019.3
20260905103603 90 293 5.0 11.0 0.00 0.00 0.00 47 1019.5
20260905103503 90 291 4.0 11.0 0.00 0.00 0.00 47 1019.4
20260905103403 90 291 4.0 11.0 0.00 0.00 0.00 47 1019.4
20260905103303 90 291 4.0 9.0 0.00 0.00 0.00 48 1019.4
20260905103203 90 293 4.0 9.0 0.00 0.00 0.00 48 1019.4
20260905103103 90 293 4.0 9.0 0.00 0.00 0.00 47 1019.4
20260905103004 90 294 3.0 9.0 0.00 0.00 0.00 47 1019.6
20260905102904 90 298 3.0 9.0 0.00 0.00 0.00 47 1019.6
20260905102804 90 299 3.0 9.0 0.00 0.00 0.00 47 1019.6
20260905102704 90 300 3.0 9.0 0.00 0.00 0.00 47 1019.6
20260905102604 90 298 3.0 11.0 0.00 0.00 0.00 47 1019.6
20260905102504 89 301 4.0 11.0 0.00 0.00 0.00 48 1019.4
20260905102404 90 298 4.0 11.0 0.00 0.00 0.00 48 1019.5
20260905102306 89 297 4.0 11.0 0.00 0.00 0.00 49 1019.4
20260905102204 89 296 3.0 11.0 0.00 0.00 0.00 49 1019.5
20260905102104 89 296 3.0 11.0 0.00 0.00 0.00 49 1019.5
20260905102004 89 295 4.0 11.0 0.00 0.00 0.00 49 1019.5
20260905101904 89 293 4.0 11.0 0.00 0.00 0.00 49 1019.4
20260905101804 89 291 3.0 11.0 0.00 0.00 0.00 49 1019.5
20260905101704 89 291 3.0 11.0 0.00 0.00 0.00 50 1019.6
20260905101604 89 290 3.0 11.0 0.00 0.00 0.00 50 1019.5
20260905101504 89 288 2.0 9.0 0.00 0.00 0.00 50 1019.5
20260905101404 89 291 2.0 7.0 0.00 0.00 0.00 50 1019.5
20260905101304 89 294 2.0 9.0 0.00 0.00 0.00 50 1019.6
20260905101204 89 292 3.0 9.0 0.00 0.00 0.00 50 1019.5
20260905101104 89 292 3.0 9.0 0.00 0.00 0.00 50 1019.6
20260905101004 89 292 2.0 9.0 0.00 0.00 0.00 51 1019.6
20260905100904 89 295 2.0 9.0 0.00 0.00 0.00 51 1019.5
20260905100804 89 296 2.0 9.0 0.00 0.00 0.00 50 1019.5
20260905100704 89 295 3.0 9.0 0.00 0.00 0.00 51 1019.6
20260905100604 89 295 3.0 9.0 0.00 0.00 0.00 50 1019.6
20260905100504 89 295 3.0 9.0 0.00 0.00 0.00 50 1019.6
20260905100404 89 295 2.0 9.0 0.00 0.00 0.00 50 1019.6
20260905100304 89 292 2.0 9.0 0.00 0.00 0.00 51 1019.6
20260905100204 89 297 2.0 8.0 0.00 0.00 0.00 52 1019.5
20260905100104 89 298 2.0 8.0 0.00 0.00 0.00 53 1019.5
20260905100004 89 299 2.0 8.0 0.00 0.00 0.00 53 1019.5
20260905095904 89 297 2.0 8.0 0.00 0.00 0.00 54 1019.5
20260905095804 89 298 2.0 8.0 0.00 0.00 0.00 54 1019.3
20260905095704 89 300 2.0 9.0 0.00 0.00 0.00 53 1019.4
20260905095604 89 301 2.0 9.0 0.00 0.00 0.00 52 1019.4
20260905095504 89 301 3.0 9.0 0.00 0.00 0.00 51 1019.5
20260905095404 89 299 3.0 9.0 0.00 0.00 0.00 51 1019.5
20260905095306 89 300 3.0 9.0 0.00 0.00 0.00 50 1019.5
20260905095204 89 301 3.0 9.0 0.00 0.00 0.00 49 1019.6
20260905095104 89 302 3.0 9.0 0.00 0.00 0.00 50 1019.6
20260905095004 89 303 3.0 9.0 0.00 0.00 0.00 49 1019.5
20260905094903 89 305 2.0 9.0 0.00 0.00 0.00 50 1019.5
20260905094804 89 304 2.0 9.0 0.00 0.00 0.00 50 1019.6
20260905094704 89 304 2.0 7.0 0.00 0.00 0.00 50 1019.7
20260905094603 89 301 2.0 7.0 0.00 0.00 0.00 50 1019.7
20260905094504 88 302 2.0 6.0 0.00 0.00 0.00 51 1019.6
20260905094403 88 311 1.0 6.0 0.00 0.00 0.00 52 1019.6
20260905094303 88 317 2.0 6.0 0.00 0.00 0.00 54 1019.7
20260905094204 88 288 2.0 11.0 0.00 0.00 0.00 55 1019.6
20260905094104 88 286 2.0 11.0 0.00 0.00 0.00 56 1019.6
20260905094005 88 286 2.0 11.0 0.00 0.00 0.00 56 1019.6
20260905093903 88 285 2.0 11.0 0.00 0.00 0.00 55 1019.5
20260905093804 88 285 2.0 11.0 0.00 0.00 0.00 55 1019.4
20260905093704 88 288 2.0 11.0 0.00 0.00 0.00 58 1019.5
20260905093603 88 291 2.0 11.0 0.00 0.00 0.00 58 1019.4
20260905093503 89 291 2.0 11.0 0.00 0.00 0.00 57 1019.5
20260905093404 89 291 2.0 11.0 0.00 0.00 0.00 57 1019.4
20260905093303 89 290 2.0 11.0 0.00 0.00 0.00 56 1019.5
20260905093203 89 296 1.0 8.0 0.00 0.00 0.00 54 1019.6
20260905093104 89 299 1.0 7.0 0.00 0.00 0.00 54 1019.5
20260905093003 89 299 1.0 7.0 0.00 0.00 0.00 54 1019.4
20260905092904 89 300 1.0 7.0 0.00 0.00 0.00 54 1019.6
20260905092803 89 301 1.0 7.0 0.00 0.00 0.00 54 1019.5
20260905092704 89 301 1.0 7.0 0.00 0.00 0.00 54 1019.5
20260905092603 89 292 1.0 7.0 0.00 0.00 0.00 54 1019.6
20260905092503 89 109 1.0 6.0 0.00 0.00 0.00 56 1019.6
20260905092403 89 303 1.0 7.0 0.00 0.00 0.00 56 1019.6
20260905092306 88 298 1.0 7.0 0.00 0.00 0.00 55 1019.6
20260905092203 89 298 1.0 7.0 0.00 0.00 0.00 54 1019.6
20260905092103 89 298 1.0 7.0 0.00 0.00 0.00 54 1019.5
20260905092003 88 195 1.0 7.0 0.00 0.00 0.00 54 1019.6
20260905091903 88 137 1.0 9.0 0.00 0.00 0.00 53 1019.6
20260905091803 88 161 1.0 9.0 0.00 0.00 0.00 52 1019.7
20260905091703 88 212 1.0 9.0 0.00 0.00 0.00 52 1019.5
20260905091603 88 191 1.0 9.0 0.00 0.00 0.00 52 1019.5
20260905091503 88 299 1.0 9.0 0.00 0.00 0.00 51 1019.6
20260905091403 88 288 1.0 9.0 0.00 0.00 0.00 50 1019.6
20260905091303 88 39 1.0 9.0 0.00 0.00 0.00 51 1019.6
20260905091203 88 94 1.0 9.0 0.00 0.00 0.00 52 1019.6
20260905091103 88 323 1.0 9.0 0.00 0.00 0.00 52 1019.6
20260905091003 88 314 1.0 9.0 0.00 0.00 0.00 52 1019.6
20260905090903 88 306 1.0 6.0 0.00 0.00 0.00 51 1019.5
20260905090803 88 308 1.0 6.0 0.00 0.00 0.00 51 1019.6
20260905090703 88 305 2.0 8.0 0.00 0.00 0.00 51 1019.5
20260905090603 88 302 2.0 8.0 0.00 0.00 0.00 51 1019.6
20260905090503 88 301 2.0 8.0 0.00 0.00 0.00 51 1019.5
20260905090403 88 303 2.0 8.0 0.00 0.00 0.00 52 1019.6
20260905090303 88 302 2.0 8.0 0.00 0.00 0.00 52 1019.7
20260905090203 88 301 2.0 8.0 0.00 0.00 0.00 53 1019.6
20260905090103 88 301 2.0 8.0 0.00 0.00 0.00 53 1019.6
20260905090003 88 299 2.0 8.0 0.00 0.00 0.00 54 1019.5
20260905085903 88 299 2.0 8.0 0.00 0.00 0.00 53 1019.6
20260905085803 88 296 2.0 8.0 0.00 0.00 0.00 55 1019.6
20260905085703 88 295 1.0 8.0 0.00 0.00 0.00 56 1019.6
20260905085603 88 295 1.0 8.0 0.00 0.00 0.00 59 1019.6
20260905085503 88 289 1.0 6.0 0.00 0.00 0.00 59 1019.6
20260905085403 88 285 1.0 6.0 0.00 0.00 0.00 60 1019.6
20260905085305 88 256 1.0 6.0 0.00 0.00 0.00 61 1019.6
20260905085203 88 259 1.0 6.0 0.00 0.00 0.00 60 1019.5
20260905085103 88 271 1.0 6.0 0.00 0.00 0.00 60 1019.6
20260905085003 88 286 2.0 6.0 0.00 0.00 0.00 60 1019.6
20260905084903 88 283 2.0 6.0 0.00 0.00 0.00 60 1019.7
20260905084803 88 284 2.0 6.0 0.00 0.00 0.00 60 1019.7
20260905084703 88 282 2.0 6.0 0.00 0.00 0.00 60 1019.8
20260905084603 88 279 1.0 5.0 0.00 0.00 0.00 60 1019.8
20260905084503 88 283 1.0 5.0 0.00 0.00 0.00 60 1019.7
20260905084404 88 284 1.0 5.0 0.00 0.00 0.00 60 1019.7
20260905084303 88 289 1.0 6.0 0.00 0.00 0.00 60 1019.7
20260905084204 88 289 1.0 6.0 0.00 0.00 0.00 59 1019.8
20260905084103 88 289 1.0 6.0 0.00 0.00 0.00 59 1019.8
20260905084003 88 290 1.0 6.0 0.00 0.00 0.00 59 1019.7
20260905083903 88 294 1.0 7.0 0.00 0.00 0.00 59 1019.7
20260905083803 88 297 1.0 7.0 0.00 0.00 0.00 59 1019.7
20260905083703 88 296 1.0 7.0 0.00 0.00 0.00 59 1019.6
20260905083603 88 296 1.0 7.0 0.00 0.00 0.00 59 1019.6
20260905083503 88 302 1.0 7.0 0.00 0.00 0.00 60 1019.7
20260905083403 88 303 1.0 7.0 0.00 0.00 0.00 60 1019.6
20260905083303 88 319 1.0 8.0 0.00 0.00 0.00 61 1019.7
20260905083203 88 323 1.0 8.0 0.00 0.00 0.00 61 1019.7
20260905083103 87 319 1.0 8.0 0.00 0.00 0.00 61 1019.7
20260905083003 88 305 1.0 8.0 0.00 0.00 0.00 61 1019.6
20260905082903 87 301 1.0 8.0 0.00 0.00 0.00 61 1019.6
20260905082803 87 298 1.0 8.0 0.00 0.00 0.00 61 1019.7
20260905082703 87 299 2.0 8.0 0.00 0.00 0.00 61 1019.7
20260905082603 88 291 2.0 8.0 0.00 0.00 0.00 61 1019.7
20260905082503 87 267 2.0 8.0 0.00 0.00 0.00 61 1019.7
20260905082403 87 170 2.0 8.0 0.00 0.00 0.00 61 1019.6
20260905082306 88 139 2.0 6.0 0.00 0.00 0.00 61 1019.6
20260905082203 88 140 2.0 6.0 0.00 0.00 0.00 61 1019.6
20260905082103 88 147 2.0 6.0 0.00 0.00 0.00 61 1019.5
20260905082003 88 126 2.0 6.0 0.00 0.00 0.00 61 1019.5
20260905081903 88 125 2.0 6.0 0.00 0.00 0.00 61 1019.5
20260905081803 88 129 2.0 7.0 0.00 0.00 0.00 61 1019.5
20260905081703 88 147 2.0 7.0 0.00 0.00 0.00 61 1019.6
20260905081603 88 263 2.0 7.0 0.00 0.00 0.00 61 1019.6
20260905081503 88 284 2.0 7.0 0.00 0.00 0.00 61 1019.6
20260905081403 88 288 2.0 7.0 0.00 0.00 0.00 60 1019.6
20260905081304 88 292 3.0 7.0 0.00 0.00 0.00 60 1019.6
20260905081204 88 294 2.0 7.0 0.00 0.00 0.00 60 1019.7
20260905081104 88 296 2.0 7.0 0.00 0.00 0.00 60 1019.7
20260905081004 88 295 2.0 7.0 0.00 0.00 0.00 60 1019.6
20260905080904 88 294 2.0 7.0 0.00 0.00 0.00 59 1019.7
20260905080804 88 296 2.0 6.0 0.00 0.00 0.00 59 1019.6
20260905080704 88 296 2.0 9.0 0.00 0.00 0.00 58 1019.6
20260905080604 88 297 2.0 9.0 0.00 0.00 0.00 59 1019.5
20260905080504 88 299 2.0 9.0 0.00 0.00 0.00 59 1019.4
20260905080404 88 300 1.0 9.0 0.00 0.00 0.00 59 1019.3
20260905080304 88 296 1.0 9.0 0.00 0.00 0.00 59 1019.3
20260905080204 88 293 1.0 9.0 0.00 0.00 0.00 60 1019.3
20260905080104 88 291 1.0 9.0 0.00 0.00 0.00 60 1019.3
20260905080004 88 291 1.0 9.0 0.00 0.00 0.00 60 1019.3
20260905075904 88 291 1.0 9.0 0.00 0.00 0.00 60 1019.3
20260905075804 88 285 1.0 9.0 0.00 0.00 0.00 61 1019.3
20260905075704 88 285 0.0 6.0 0.00 0.00 0.00 61 1019.3
20260905075604 87 298 1.0 6.0 0.00 0.00 0.00 61 1019.3
20260905075504 87 298 1.0 6.0 0.00 0.00 0.00 61 1019.3
20260905075404 87 298 1.0 6.0 0.00 0.00 0.00 61 1019.3
20260905075306 87 298 2.0 7.0 0.00 0.00 0.00 61 1019.3
20260905075204 87 300 2.0 7.0 0.00 0.00 0.00 61 1019.3
20260905075104 87 299 3.0 7.0 0.00 0.00 0.00 60 1019.2
20260905075004 87 301 3.0 7.0 0.00 0.00 0.00 60 1019.3
20260905074904 87 301 3.0 8.0 0.00 0.00 0.00 60 1019.3
20260905074804 87 300 4.0 8.0 0.00 0.00 0.00 59 1019.3
20260905074704 87 299 4.0 8.0 0.00 0.00 0.00 59 1019.3
20260905074605 87 299 4.0 8.0 0.00 0.00 0.00 59 1019.4
20260905074504 87 300 4.0 8.0 0.00 0.00 0.00 59 1019.3
20260905074404 87 299 4.0 8.0 0.00 0.00 0.00 60 1019.4
20260905074304 88 299 4.0 8.0 0.00 0.00 0.00 60 1019.4
20260905074204 88 299 3.0 8.0 0.00 0.00 0.00 60 1019.4
20260905074104 88 299 3.0 8.0 0.00 0.00 0.00 60 1019.4
20260905074004 88 298 3.0 8.0 0.00 0.00 0.00 60 1019.4
20260905073904 88 297 3.0 8.0 0.00 0.00 0.00 60 1019.3
20260905073804 88 298 2.0 8.0 0.00 0.00 0.00 60 1019.3
20260905073704 88 300 2.0 8.0 0.00 0.00 0.00 61 1019.3
20260905073604 88 299 2.0 8.0 0.00 0.00 0.00 60 1019.3
20260905073504 88 297 2.0 8.0 0.00 0.00 0.00 60 1019.3
20260905073404 88 298 2.0 7.0 0.00 0.00 0.00 61 1019.4
20260905073304 88 299 2.0 7.0 0.00 0.00 0.00 61 1019.3
20260905073204 88 298 1.0 7.0 0.00 0.00 0.00 61 1019.4
20260905073104 88 299 1.0 7.0 0.00 0.00 0.00 61 1019.3
20260905073004 88 300 1.0 7.0 0.00 0.00 0.00 61 1019.3
20260905072904 88 299 2.0 7.0 0.00 0.00 0.00 61 1019.2
20260905072804 88 300 2.0 7.0 0.00 0.00 0.00 61 1019.3
20260905072704 88 300 2.0 7.0 0.00 0.00 0.00 61 1019.3
20260905072604 88 300 2.0 7.0 0.00 0.00 0.00 61 1019.3
20260905072503 88 300 2.0 7.0 0.00 0.00 0.00 61 1019.1
20260905072404 88 302 2.0 7.0 0.00 0.00 0.00 61 1019.2
20260905072306 88 301 1.0 7.0 0.00 0.00 0.00 61 1019.3
20260905072204 88 303 2.0 7.0 0.00 0.00 0.00 61 1019.3
20260905072104 88 304 2.0 7.0 0.00 0.00 0.00 61 1019.3
20260905072004 88 303 1.0 7.0 0.00 0.00 0.00 62 1019.3
20260905071903 88 302 1.0 7.0 0.00 0.00 0.00 62 1019.2
20260905071804 88 300 1.0 7.0 0.00 0.00 0.00 62 1019.3
20260905071703 88 301 1.0 7.0 0.00 0.00 0.00 62 1019.2
20260905071604 88 298 1.0 7.0 0.00 0.00 0.00 62 1019.3
20260905071503 88 299 1.0 7.0 0.00 0.00 0.00 62 1019.2
20260905071403 88 299 1.0 7.0 0.00 0.00 0.00 62 1019.2
20260905071303 88 300 2.0 7.0 0.00 0.00 0.00 62 1019.2
20260905071203 88 298 1.0 7.0 0.00 0.00 0.00 62 1019.2
20260905071103 88 296 1.0 7.0 0.00 0.00 0.00 62 1019.3
20260905071004 88 296 2.0 7.0 0.00 0.00 0.00 62 1019.3
20260905070904 88 296 2.0 7.0 0.00 0.00 0.00 62 1019.3
20260905070803 88 295 2.0 7.0 0.00 0.00 0.00 62 1019.3
20260905070703 88 295 3.0 7.0 0.00 0.00 0.00 62 1019.3
20260905070603 88 295 3.0 7.0 0.00 0.00 0.00 63 1019.3
20260905070503 88 294 2.0 7.0 0.00 0.00 0.00 62 1019.3
20260905070404 88 294 2.0 7.0 0.00 0.00 0.00 62 1019.2
20260905070303 88 293 2.0 7.0 0.00 0.00 0.00 63 1019.3
20260905070203 88 294 2.0 7.0 0.00 0.00 0.00 62 1019.2
20260905070004 88 293 3.0 7.0 0.00 0.00 0.00 62 1019.3
20260905065903 88 293 2.0 6.0 0.00 0.00 0.00 63 1019.3
20260905065803 88 294 2.0 6.0 0.00 0.00 0.00 63 1019.3
20260905065703 88 293 1.0 5.0 0.00 0.00 0.00 63 1019.4
20260905065603 88 292 1.0 5.0 0.00 0.00 0.00 63 1019.4
20260905065503 88 294 1.0 5.0 0.00 0.00 0.00 63 1019.3
20260905065403 88 294 2.0 5.0 0.00 0.00 0.00 63 1019.4
20260905065306 88 295 2.0 5.0 0.00 0.00 0.00 63 1019.3
20260905065203 88 294 1.0 5.0 0.00 0.00 0.00 63 1019.2
20260905065103 88 294 1.0 5.0 0.00 0.00 0.00 64 1019.2
20260905065003 87 296 1.0 5.0 0.00 0.00 0.00 64 1019.2
20260905064903 87 295 1.0 6.0 0.00 0.00 0.00 64 1019.1
20260905064803 87 293 2.0 6.0 0.00 0.00 0.00 64 1019.2
20260905064703 87 294 2.0 6.0 0.00 0.00 0.00 64 1019.3
20260905064603 87 295 2.0 7.0 0.00 0.00 0.00 64 1019.2
20260905064503 87 295 2.0 7.0 0.00 0.00 0.00 64 1019.2
20260905064403 87 295 3.0 7.0 0.00 0.00 0.00 64 1019.3
20260905064303 87 295 3.0 7.0 0.00 0.00 0.00 64 1019.2
20260905064203 87 297 3.0 7.0 0.00 0.00 0.00 65 1019.2
20260905064103 87 297 3.0 7.0 0.00 0.00 0.00 65 1019.1
20260905064003 87 297 3.0 7.0 0.00 0.00 0.00 65 1019.3
20260905063903 87 298 3.0 7.0 0.00 0.00 0.00 65 1019.3
20260905063803 87 299 3.0 7.0 0.00 0.00 0.00 65 1019.3
20260905063703 87 299 3.0 7.0 0.00 0.00 0.00 65 1019.2
20260905063603 87 300 3.0 7.0 0.00 0.00 0.00 65 1019.2
20260905063503 87 299 3.0 7.0 0.00 0.00 0.00 65 1019.3
20260905063403 87 300 2.0 7.0 0.00 0.00 0.00 65 1019.3
20260905063303 87 299 2.0 7.0 0.00 0.00 0.00 65 1019.3
20260905063203 87 298 2.0 6.0 0.00 0.00 0.00 65 1019.3
20260905063103 87 298 2.0 6.0 0.00 0.00 0.00 65 1019.2
20260905063003 87 299 2.0 6.0 0.00 0.00 0.00 66 1019.4
20260905062903 87 297 2.0 6.0 0.00 0.00 0.00 66 1019.3
20260905062803 87 298 2.0 7.0 0.00 0.00 0.00 66 1019.2
20260905062703 87 297 2.0 7.0 0.00 0.00 0.00 66 1019.3
20260905062603 86 296 3.0 7.0 0.00 0.00 0.00 67 1019.3
20260905062503 86 296 3.0 7.0 0.00 0.00 0.00 67 1019.4
20260905062403 86 296 3.0 7.0 0.00 0.00 0.00 67 1019.4
20260905062305 86 297 3.0 7.0 0.00 0.00 0.00 67 1019.4
20260905062203 86 296 3.0 7.0 0.00 0.00 0.00 67 1019.3
20260905062103 86 295 4.0 7.0 0.00 0.00 0.00 67 1019.4
20260905062003 86 296 4.0 7.0 0.00 0.00 0.00 67 1019.4
20260905061903 86 296 3.0 7.0 0.00 0.00 0.00 67 1019.4
20260905061803 86 296 3.0 7.0 0.00 0.00 0.00 67 1019.4
20260905061703 86 297 3.0 7.0 0.00 0.00 0.00 68 1019.5
20260905061603 86 297 3.0 7.0 0.00 0.00 0.00 68 1019.5
20260905061503 86 299 2.0 6.0 0.00 0.00 0.00 68 1019.4
20260905061403 86 298 3.0 8.0 0.00 0.00 0.00 68 1019.5
20260905061303 85 299 3.0 8.0 0.00 0.00 0.00 68 1019.4
20260905061203 85 301 3.0 8.0 0.00 0.00 0.00 68 1019.3
20260905061103 85 303 3.0 8.0 0.00 0.00 0.00 69 1019.4
20260905061003 85 302 3.0 8.0 0.00 0.00 0.00 69 1019.3
20260905060903 85 302 3.0 8.0 0.00 0.00 0.00 69 1019.3
20260905060803 85 301 3.0 8.0 0.00 0.00 0.00 70 1019.3
20260905060703 85 301 3.0 8.0 0.00 0.00 0.00 70 1019.3
20260905060603 85 301 3.0 8.0 0.00 0.00 0.00 70 1019.2
20260905060503 85 300 3.0 8.0 0.00 0.00 0.00 70 1019.3
20260905060403 84 300 3.0 8.0 0.00 0.00 0.00 71 1019.3
20260905060303 84 298 3.0 8.0 0.00 0.00 0.00 71 1019.2
20260905060203 84 296 3.0 8.0 0.00 0.00 0.00 71 1019.3
20260905060103 84 295 3.0 8.0 0.00 0.00 0.00 71 1019.3
20260905060003 84 295 2.0 7.0 0.00 0.00 0.00 71 1019.2
20260905055903 83 295 2.0 7.0 0.00 0.00 0.00 71 1019.2
20260905055803 83 294 2.0 7.0 0.00 0.00 0.00 72 1019.3
20260905055704 83 293 2.0 6.0 0.00 0.00 0.00 72 1019.2
20260905055604 83 293 2.0 6.0 0.00 0.00 0.00 72 1019.3
20260905055504 83 293 2.0 6.0 0.00 0.00 0.00 72 1019.2
20260905055404 83 293 2.0 6.0 0.00 0.00 0.00 72 1019.2
20260905055306 83 294 2.0 5.0 0.00 0.00 0.00 72 1019.3
20260905055204 83 294 2.0 5.0 0.00 0.00 0.00 72 1019.4
20260905055104 82 297 1.0 5.0 0.00 0.00 0.00 72 1019.3
20260905055004 82 296 1.0 5.0 0.00 0.00 0.00 72 1019.2
20260905054904 82 296 1.0 5.0 0.00 0.00 0.00 72 1019.3
20260905054804 82 297 1.0 4.0 0.00 0.00 0.00 72 1019.3
20260905054704 82 297 1.0 3.0 0.00 0.00 0.00 72 1019.3
20260905054604 82 297 1.0 3.0 0.00 0.00 0.00 72 1019.2
20260905054504 82 297 1.0 4.0 0.00 0.00 0.00 72 1019.2
20260905054404 82 296 1.0 4.0 0.00 0.00 0.00 72 1019.2
20260905054304 82 298 1.0 4.0 0.00 0.00 0.00 72 1019.2
20260905054204 82 297 1.0 4.0 0.00 0.00 0.00 72 1019.2
20260905054104 82 295 1.0 4.0 0.00 0.00 0.00 72 1019.2
20260905054004 82 296 2.0 4.0 0.00 0.00 0.00 72 1019.2
20260905053904 82 295 2.0 4.0 0.00 0.00 0.00 72 1019.3
20260905053804 82 295 1.0 4.0 0.00 0.00 0.00 72 1019.4
20260905053704 82 295 1.0 4.0 0.00 0.00 0.00 72 1019.3
20260905053604 82 295 1.0 4.0 0.00 0.00 0.00 72 1019.3
20260905053504 82 296 1.0 4.0 0.00 0.00 0.00 72 1019.3
20260905053404 82 297 1.0 4.0 0.00 0.00 0.00 72 1019.2
20260905053304 82 295 1.0 4.0 0.00 0.00 0.00 71 1019.2
20260905053204 82 295 1.0 4.0 0.00 0.00 0.00 71 1019.2
20260905053104 81 296 1.0 4.0 0.00 0.00 0.00 71 1019.3
20260905053004 81 292 0.0 3.0 0.00 0.00 0.00 70 1019.2
20260905052904 81 292 0.0 3.0 0.00 0.00 0.00 70 1019.2
20260905052804 81 292 0.0 3.0 0.00 0.00 0.00 70 1019.1
20260905052704 81 292 0.0 3.0 0.00 0.00 0.00 70 1019.2
20260905052604 81 292 0.0 3.0 0.00 0.00 0.00 70 1019.2
20260905052504 81 292 0.0 3.0 0.00 0.00 0.00 70 1019.1
20260905052404 81 292 0.0 3.0 0.00 0.00 0.00 70 1019.1